     2              OBSERVATION DATA    GPS                 RINEX VERSION / TYPE
ASRINEXO V2.4.4 UX USGS 21-MAR-97 11:42                     PGM / RUN BY / DATE
                                                            COMMENT
Contact: kwendt@isdmnl.wr.usgs.gov (Ph: 415-329-4866)       COMMENT
Contact: kwendt@isdmnl.wr.usgs.gov (Ph: 415-329-4866)       COMMENT
Contact: kwendt@isdmnl.wr.usgs.gov (Ph: 415-329-4866)       COMMENT
Contact: kwendt@isdmnl.wr.usgs.gov (Ph: 415-329-4866)       COMMENT
Original Marker Name: carx Car_1942_USC&GS                  COMMENT
Campaign Name: USGS Parkfield                               COMMENT
4-Character Station Name: CARX                              COMMENT
6-Character Antenna Code: ASHP12                            COMMENT
Vertical Measurement Point: EGP                             COMMENT
Vertical Offset to Rinex Ref. Point: 0.0593                 COMMENT
Radial Measurement Point: EGP                               COMMENT
Radial Offset to Rinex Ref. Point: 0.1425                   COMMENT
Antenna Height from Field Measurement: 1.3110 m             COMMENT
Additional Antenna Identification Info.:                    COMMENT
Ashtech L1/L2 Revision B (700228DE)                         COMMENT
Original XYZ: -2620426.3501 -4460961.5586 3718452.1582      COMMENT
New XYZ position is based on association with SCEC monument COMMENT
E1F1N2L6+0011. Position of that monument is believed to be  COMMENT
valid to within 1 m horizontally; vertical accuracy         COMMENT
should be no worse than 3-times this value.                 COMMENT
                                                            COMMENT
Revised Rinex header created by UCSD GPS archive for        COMMENT
GSAC on 17-Jul-2000 (2000:199) 23:45:34 GMT                 COMMENT
For assistance contact dagnew@ucsd.edu                      COMMENT
or anderson@python.ucsd.edu                                 COMMENT
                                                            COMMENT
CAR 1942                                                    MARKER NAME
CHS US GEOLOGICAL SURVEY                                    OBSERVER / AGENCY
591 ASHTECH Z-XII3 1E95                                     REC # / TYPE / VERS
036 ASHTECH GEODETIC P                                      ANT # / TYPE
 -2620434.7822 -4460966.9121  3718423.4542                  APPROX POSITION XYZ
        1.2439        0.0000        0.0000                  ANTENNA: DELTA H/E/N
     1     1     0                                          WAVELENGTH FACT L1/2
     5    C1    L1    L2    P1    P2                        # / TYPES OF OBSERV
    30                                                      INTERVAL
  1997     3    17    21    58   30.000000                  TIME OF FIRST OBS
  1997     3    17    23    58   60.000000                  TIME OF LAST OBS
                                                            END OF HEADER
 97  3 17 21 58 30.0000000  0  7  2 26 24  5  7  9  4
  22489331.696       60645.14349                  22489332.029    22489338.1744
  24181439.019      151149.29549    111570.12649  24181439.1184   24181446.2404
  23527919.416     -446610.73349   -321838.64049  23527918.0914   23527924.0694
  24396425.603     -363561.38249   -264044.54649  24396424.0674   24396430.5754
  21209900.244       90010.38749     65646.36149  21209899.5124   21209904.1104
  21897270.005     -279362.52849   -203489.94549  21897269.6564   21897274.7044
  21582150.050     -317690.72949   -230248.76649  21582149.4094   21582153.1304
 97  3 17 21 59  0.0000000  0  7  2 26 24  5  7  9  4
  22493691.509      105638.54259     78497.54949  22493691.7914   22493697.4794
  24190125.018      196803.08249    147144.43749  24190126.4744   24190133.5384
  23502192.040     -581811.78249   -427189.91749  23502187.6544   23502195.4404
  24375242.471     -474885.22449   -350790.25949  24375239.9534   24375246.2254
  21214647.070      114955.13649     85083.83649  21214646.2164   21214650.9734
  21879929.401     -370486.93249   -274495.93849  21879929.7804   21879934.4194
  21563818.120     -414025.73149   -305314.93449  21563817.3704   21563821.2284
 97  3 17 21 59 30.0000000  0  7  2 26 24  5  7  9  4
  22498020.930      128386.75349     96223.41949  22498020.5844   22498026.1484
  24198765.091      242201.80349    182519.97849  24198765.7734   24198771.6794
  23476407.895     -717299.70849   -532764.76149  23476405.3834   23476412.5064
  24353977.897     -586623.57049   -437858.94849  24353975.1044   24353983.1094
  21219361.511      139729.36749    104388.43449  21219360.6624   21219365.3364
  21862589.711     -461609.45349   -345500.46949  21862589.8144   21862593.9484
  21545488.772     -510345.09749   -380368.92549  21545488.5094   21545492.8954
 97  3 17 22  0  0.0000000  0  7  2 26 24  5  7  9  4
  22502324.888      151004.13449    113847.35949  22502324.5254   22502330.3844
  24207359.252      287361.82549    217709.50549  24207360.0734   24207365.3914
  23450576.464     -853038.49049   -638535.08849  23450574.6654   23450581.1334
  24332641.046     -698746.09849   -525227.04249  24332639.7144   24332649.2144
  21224048.023      164357.42649    123579.13449  21224047.3784   21224052.1754
  21845258.871     -552684.12249   -416467.70849  21845258.6324   21845263.4754
  21527170.349     -606607.90549   -455378.85149  21527169.9304   21527174.5994
 97  3 17 22  0 30.0000000  0  7  2 26 24  5  7  9  4
  22506612.092      173533.50349    131402.69849  22506611.7374   22506617.1474
  24215912.973      332312.54449    252735.95449  24215910.6044   24215920.0484
  23424712.737     -988951.22249   -744440.95249  23424712.1394   23424717.4144
  24311242.489     -811195.98849   -612850.20049  24311242.3574   24311250.1664
  21228715.939      188887.76249    142693.68549  21228715.1764   21228720.4084
  21827949.642     -643644.84049   -487346.15549  21827949.1854   21827953.8954
  21508877.643     -702735.88749   -530283.73449  21508877.4044   21508881.6404
 97  3 17 22  1  0.0000000  0  7  2 26 24  5  7  9  4
  22510886.895      195996.74849    148906.51349  22510886.0884   22510891.9864
  24224428.954      377068.56649    287610.72549  24224428.8174   24224438.0864
  23398821.786    -1125009.03249   -850459.86149  23398821.8234   23398826.9094
  24289786.252     -923948.88549   -700709.50349  24289785.4014   24289794.8424
  21233370.788      213349.41349    161754.71749  21233370.2644   21233374.8944
  21810669.327     -734453.62049   -558106.22149  21810669.3584   21810673.1154
  21490619.294     -798683.91949   -605048.37749  21490619.1444   21490623.3344
 97  3 17 22  1 30.0000000  0  7  2 26 24  5  7  9  4
  22515158.241      218443.20949    166397.25849  22515157.5014   22515163.9034
  24232920.201      421689.73849    322380.39149  24232921.7274   24232930.8484
  23372912.317    -1261166.05749   -956556.10549  23372911.6004   23372917.9164
  24268283.383    -1036946.88949   -788759.77449  24268282.5184   24268289.4904
  21238022.481      237793.95349    180802.40749  21238021.8434   21238026.7754
  21793428.994     -825052.58549   -628702.79649  21793428.8634   21793432.9004
  21472406.787     -894390.28549   -679624.72349  21472406.5424   21472411.0184
 97  3 17 22  2  0.0000000  0  7  2 26 24  5  7  9  4
  22519433.177      240908.73549    183902.85049  22519432.9314   22519438.9344
  24241392.743      466211.89649    357072.91649  24241394.0724   24241401.9694
  23346993.819    -1397369.26849  -1062688.32349  23346993.2234   23346999.3584
  24246744.331    -1150135.12149   -876958.29849  24246744.0784   24246751.5224
  21242678.355      262260.40249    199867.17649  21242677.7404   21242682.8544
  21776234.446     -915410.51749   -699111.54649  21776233.9074   21776238.5654
  21454252.200     -989792.34849   -753963.94349  21454252.4304   21454256.6094
 97  3 17 22  2 30.0000000  0  7  2 26 24  5  7  9  4
  22523718.220      263426.31849    201449.00049  22523717.8954   22523724.4494
  24249853.455      510670.43249    391715.85149  24249854.6654   24249860.8274
  23321069.501    -1533600.01449  -1168842.02149  23321067.9514   23321075.8444
  24225172.800    -1263492.97749   -965288.97549  24225170.8934   24225179.4324
  21247343.244      286774.21049    218968.84049  21247342.8714   21247347.5924
  21759088.119    -1005514.51549   -769322.41949  21759088.0874   21759092.8394
  21436161.377    -1084860.66049   -828043.08349  21436161.6944   21436165.9174
 97  3 17 22  3  0.0000000  0  7  2 26 24  5  7  9  4
  22528021.424      286039.18149    219069.39249  22528021.2354   22528027.1454
  24258309.883      555108.92749    426343.19349  24258309.6524   24258317.1264
  23295145.148    -1669830.37549  -1274995.43049  23295143.5784   23295151.4144
  24203575.385    -1376988.21149  -1053726.73449  24203576.6034   24203581.8064
  21252025.549      311379.85049    238142.06649  21252024.9394   21252029.4644
  21741996.613    -1095331.22949   -839309.43949  21741996.2594   21742000.7464
  21418139.604    -1179565.29249   -901838.83449  21418138.9514   21418144.0294
 97  3 17 22  3 30.0000000  0  7  2 26 24  5  7  9  4
  22532348.405      308776.73149    236786.94149  22532347.9304   22532354.1104
  24266767.564      599552.86749    460974.73549  24266767.6064   24266775.9084
  23269228.456    -1806022.18049  -1381118.80249  23269227.8694   23269235.8374
  24181957.705    -1490591.08349  -1142248.31649  24181958.1794   24181965.1064
  21256728.483      336094.01849    257399.85749  21256727.6944   21256732.9244
  21724963.022    -1184843.23249   -909059.01549  21724962.7414   21724967.4624
  21400192.929    -1273874.01749   -975326.09049  21400192.7154   21400197.6524
 97  3 17 22  4  0.0000000  0  7  2 26 24  5  7  9  4
  22536703.229      331661.39449    254619.12549  22536702.1164   22536708.3644
  24275226.426      644006.53949    495613.89449  24275226.1314   24275235.7114
  23243323.602    -1942152.94049  -1487194.62249  23243324.1824   23243331.0504
  24160323.258    -1604279.89749  -1230836.87749  24160320.5384   24160330.9124
  21261454.101      360927.27649    276750.44749  21261453.4124   21261458.3844
  21707991.824    -1274027.29749   -978553.05249  21707991.5504   21707996.4044
  21382326.406    -1367762.69049  -1048486.03749  21382326.4634   21382331.1824
 97  3 17 22  4 30.0000000  0  7  2 26 24  5  7  9  4
  22541088.850      354708.20449    272577.65949  22541088.2594   22541094.2464
  24283690.024      688482.80049    530270.65249  24283689.6914   24283700.4114
  23217436.377    -2078192.61749  -1593199.45349  23217436.7734   23217443.4644
  24138673.746    -1718047.09049  -1319486.55249  24138671.3864   24138681.3564
  21266207.698      385907.12649    296215.26049  21266207.5214   21266212.2364
  21691089.667    -1362848.64449  -1047764.45849  21691089.5214   21691093.7664
  21364542.524    -1461218.11049  -1121308.37849  21364543.0754   21364547.7594
 97  3 17 22  5  0.0000000  0  7  2 26 24  5  7  9  4
  22545512.510      377954.05349    290691.27649  22545512.1774   22545518.3814
  24292162.433      733005.94349    564963.92149  24292163.1454   24292172.5374
  23191574.345    -2214098.94749  -1699100.40749  23191574.2774   23191580.4204
  24117014.926    -1831862.53149  -1408173.80949  24117013.7194   24117021.4054
  21270996.418      411070.99149    315823.46449  21270996.2264   21271001.1644
  21674266.148    -1451256.27949  -1116653.47849  21674265.7684   21674270.7264
  21346846.843    -1554210.39449  -1193769.84249  21346846.9854   21346852.5394
 97  3 17 22  5 30.0000000  0  7  2 26 24  5  7  9  4
  22549976.560      401412.40649    308970.48349  22549975.8474   22549982.4734
  24300647.348      777591.79749    599706.03949  24300649.2514   24300655.9824
  23165742.338    -2349847.02449  -1804878.03749  23165742.4204   23165748.4884
  24095351.904    -1945702.84049  -1496880.42249  24095351.3454   24095358.2094
  21275820.308      436420.44349    335576.28449  21275820.0364   21275824.5904
  21657523.540    -1539238.78249  -1185211.22649  21657522.9594   21657528.3874
  21329242.222    -1646722.96849  -1265857.51249  21329242.1534   21329247.3954
 97  3 17 22  6  0.0000000  0  7  2 26 24  5  7  9  4
  22554481.882      425088.42649    327419.30749  22554481.3084   22554487.2864
  24309146.063      822250.33649    634504.79949  24309145.9384   24309155.1404
  23139941.811    -2485429.41349  -1910526.54149  23139941.5924   23139947.2314
  24073686.842    -2059554.05049  -1585595.53549  24073686.8134   24073694.1544
  21280685.230      461984.91249    355496.65049  21280684.7984   21280689.6874
  21640863.779    -1626785.65649  -1253429.52749  21640863.9724   21640868.7944
  21311728.472    -1738758.10149  -1337573.14049  21311728.5174   21311733.2004
 97  3 17 22  6 30.0000000  0  7  2 26 24  5  7  9  4
  22559032.116      449000.20749    346051.84049  22559031.1384   22559037.2364
  24317660.325      866993.11849    669369.22349  24317660.9744   24317668.2314
  23114174.505    -2620837.67149  -2016039.39349  23114174.5504   23114179.1084
  24052021.796    -2173405.67149  -1674311.00549  24052022.0124   24052029.0834
  21285594.308      487782.36749    375598.55749  21285593.5404   21285598.3404
  21624292.677    -1713867.44049  -1321285.42549  21624292.2244   21624297.8744
  21294306.292    -1830312.12049  -1408913.87549  21294306.5584   21294310.7664
 97  3 17 22  7  0.0000000  0  7  2 26 24  5  7  9  4
  22563632.589      473175.12649    364889.40549  22563632.7724   22563637.8764
  24326195.402      911843.62849    704317.59549  24326197.0544   24326203.7224
  23088443.320    -2756057.28049  -2121405.21749  23088442.6144   23088448.2224
  24030364.349    -2287217.61049  -1762995.52549  24030363.7754   24030371.1434
  21290548.067      513814.92049    395883.65049  21290547.6714   21290552.4184
  21607814.476    -1800460.85449  -1388760.79249  21607814.6414   21607818.7394
  21276978.981    -1921368.32049  -1479866.69449  21276979.0644   21276983.4634
 97  3 17 22  7 30.0000000  0  7  2 26 24  5  7  9  4
  22568283.541      497614.78049    383933.27549  22568283.0334   22568289.0884
  24334753.076      956811.47849    739357.39649  24334754.3904   24334760.6904
  23062749.598    -2891078.15849  -2226616.18749  23062748.5114   23062755.2194
  24008716.624    -2400976.72149  -1851638.88749  24008715.9724   24008722.5214
  21295546.460      540081.47749    416351.09749  21295546.3204   21295550.8984
  21591432.192    -1886551.11049  -1455844.09449  21591432.6024   21591436.8144
  21259747.931    -2011918.30349  -1550425.07949  21259748.1034   21259752.3714
 97  3 17 22  8  0.0000000  0  7  2 26 24  5  7  9  4
  22572983.745      522314.34349    403179.66649  22572982.7594   22572988.7334
  24343330.563     1001885.32849    774479.78349  24343330.9734   24343337.7754
  23037092.858    -3025904.14849  -2331675.30149  23037092.1234   23037099.2064
  23987076.203    -2514697.37449  -1940252.29149  23987075.1234   23987082.1164
  21300588.041      566575.21349    436995.56949  21300587.5704   21300592.1254
  21575149.766    -1972116.79349  -1522518.65149  21575150.0944   21575154.2554
  21242613.783    -2101958.65849  -1620586.33949  21242613.9444   21242618.6274
 97  3 17 22  8 30.0000000  0  7  2 26 24  5  7  9  4
  22577735.639      547286.45649    422638.42549  22577734.7104   22577740.1544
  24351928.749     1047067.64049    809686.66149  24351929.9204   24351935.2404
  23011475.299    -3160524.58149  -2436574.25749  23011473.8084   23011482.0244
  23965443.034    -2628378.89449  -2028835.20149  23965442.1904   23965448.8164
  21305669.073      593276.24049    457801.56549  21305668.0934   21305673.4064
  21558968.981    -2057147.44249  -1588776.27949  21558968.2874   21558973.4724
  21225579.376    -2191475.15749  -1690339.41249  21225579.2874   21225583.6664
 97  3 17 22  9  0.0000000  0  7  2 26 24  5  7  9  4
  22582536.274      572514.18849    442296.37949  22582536.3354   22582541.7894
  24360545.403     1092346.65549    844968.90449  24360545.3554   24360552.4034
  22985898.443    -3294930.00449  -2541305.66649  22985896.8354   22985906.0994
  23943816.788    -2742026.71249  -2117391.82649  23943816.2714   23943822.3554
  21310786.861      620170.70849    478758.30749  21310786.2404   21310791.4294
  21542885.042    -2141668.42049  -1654636.75649  21542885.2014   21542889.7294
  21208644.228    -2280469.67549  -1759685.74649  21208644.4614   21208648.8744
 97  3 17 22  9 29.9990000  0  7  2 26 24  5  7  9  4
  22587382.681      597981.74749    462141.21049  22587382.3014   22587387.9004
  24369176.293     1137703.90249    880312.15549  24369174.1924   24369183.9304
  22960361.759    -3429123.82249  -2645872.18449  22960361.7124   22960368.9404
  23922194.634    -2855652.85149  -2205931.56749  23922194.9694   23922199.9904
  21315941.013      647255.69149    499863.48649  21315940.6314   21315945.5274
  21526895.551    -2225693.97349  -1720111.20449  21526895.4404   21526899.4604
  21191809.275    -2368938.03049  -1828622.09049  21191809.0464   21191813.8394
 97  3 17 22  9 59.9990000  0  7  2 26 24  5  7  9  4
  22592273.079      623680.89749    482166.49649  22592272.3354   22592278.7124
  24377818.970     1183124.79349    915704.98749  24377818.5274   24377826.9714
  22934861.026    -3563130.74849  -2750293.06549  22934861.2464   22934868.2604
  23900573.713    -2969272.05349  -2294465.88949  23900572.3484   23900580.8984
  21321128.845      674517.77449    521106.67249  21321128.3904   21321133.5614
  21510993.898    -2309257.92249  -1785225.96949  21510993.7294   21510998.2004
  21175072.481    -2456890.18749  -1897156.20749  21175072.3524   21175077.0154
 97  3 17 22 10 29.9990000  0  7  2 26 24  5  7  9  4
  22597206.029      649604.13749    502366.40949  22597205.0904   22597212.0104
  24386471.837     1228595.01149    951136.23849  24386473.5064   24386480.9744
  22909395.750    -3696953.10049  -2854570.10649  22909395.7054   22909402.4164
  23878953.070    -3082886.48049  -2382996.51549  23878951.4364   23878960.6934
  21326349.032      701949.81649    542482.28749  21326348.4064   21326353.8424
  21495175.320    -2392384.67549  -1850000.03949  21495175.4804   21495179.7744
  21158433.431    -2544328.73549  -1965290.09849  21158432.6424   21158437.8314
 97  3 17 22 10 59.9990000  0  7  2 26 24  5  7  9  4
  22602180.928      675746.37549    522736.94549  22602180.5064   22602186.0424
  24395135.523     1274118.89949    986609.29149  24395136.9384   24395142.1494
  22883966.501    -3830585.19249  -2958698.89449  22883965.8704   22883973.5344
  23857332.811    -3196498.89349  -2471525.58749  23857332.2634   23857339.7544
  21331603.179      729560.32749    563996.96949  21331602.5094   21331607.5504
  21479439.134    -2475079.61249  -1914437.63849  21479438.8644   21479443.7484
  21141892.640    -2631249.48549  -2033020.52349  21141892.6424   21141897.2814
 97  3 17 22 11 29.9990000  0  7  2 26 24  5  7  9  4
  22607197.773      702110.18149    543280.13449  22607197.1134   22607203.6694
  24403810.976     1319707.41149   1022132.72449  24403809.7244   24403817.1104
  22858570.887    -3964039.54149  -3062689.18649  22858568.7424   22858576.5934
  23835712.657    -3310114.61549  -2560057.22949  23835712.4904   23835719.2144
  21336890.901      757347.95349    585649.67349  21336890.3684   21336895.5204
  21463785.347    -2557340.80849  -1978537.26249  21463785.0814   21463789.2144
  21125451.782    -2717647.01149  -2100343.22349  21125452.5934   21125456.7224
 97  3 17 22 11 59.9990000  0  7  2 26 24  5  7  9  4
  22612256.215      728692.34549    563993.46249  22612255.8414   22612261.4444
  24412494.109     1365341.05049   1057691.34349  24412493.5124   24412500.6504
  22833207.511    -4097321.49549  -3166545.15549  22833206.4204   22833213.8244
  23814087.742    -3423754.61849  -2648607.78049  23814088.3704   23814093.3284
  21342209.602      785297.85849    607428.82149  21342209.1364   21342213.8824
  21448210.745    -2639185.96149  -2042312.68249  21448210.4134   21448214.9984
  21109107.250    -2803539.64149  -2167272.49949  21109107.2194   21109111.5944
 97  3 17 22 12 29.9990000  0  7  2 26 24  5  7  9  4
  22617354.721      755486.49849    584871.99849  22617354.5614   22617360.8954
  24421186.079     1411017.15449   1093283.02449  24421187.2544   24421194.6764
  22807878.594    -4230425.48349  -3270262.43049  22807877.7654   22807883.4644
  23792456.305    -3537430.22549  -2737186.06749  23792455.5864   23792461.0594
  21347561.641      813422.54449    629344.16749  21347560.9414   21347565.9974
  21432715.632    -2720613.01549  -2105762.30249  21432715.1604   21432719.9804
  21092856.605    -2888936.67849  -2233815.60749  21092856.1904   21092861.4224
 97  3 17 22 12 59.9990000  0  7  2 26 24  5  7  9  4
  22622493.398      782489.78249    605913.47749  22622493.9634   22622498.7134
  24429884.861     1456728.10149   1128901.85949  24429885.4324   24429893.6044
  22782582.589    -4363358.54549  -3373846.50449  22782583.4064   22782587.0014
  23770818.812    -3651135.43049  -2825787.43649  23770817.8254   23770823.7814
  21352945.489      841714.78749    651390.07049  21352945.0044   21352949.7054
  21417302.118    -2801611.04649  -2168877.61149  21417301.6914   21417306.7764
  21076698.492    -2973847.43049  -2299979.79949  21076698.7554   21076703.1534
 97  3 17 22 13 29.9990000  0  7  2 26 24  5  7  9  4
  22627672.819      809706.95949    627121.63749  22627673.4784   22627679.1664
  24438585.369     1502447.25649   1164527.09049  24438586.6984   24438593.5774
  22757317.489    -4496127.72849  -3477302.88249  22757317.2274   22757323.0074
  23749176.996    -3764864.05049  -2914407.04649  23749176.3174   23749183.5754
  21358359.215      870163.98649    673558.27249  21358358.8664   21358364.2174
  21401973.958    -2882160.86549  -2231643.66349  21401973.3624   21401978.1234
  21060631.053    -3058282.50249  -2365773.32649  21060631.1384   21060635.6204
 97  3 17 22 13 59.9990000  0  7  2 26 24  5  7  9  4
  22632895.520      837150.39749    648506.07949  22632895.1434   22632900.6864
  24447285.705     1548166.71849   1200152.52649  24447285.7764   24447293.0414
  22732089.089    -4628704.15349  -3580609.06849  22732088.7624   22732096.0034
  23727533.431    -3878600.33449  -3003032.64849  23727532.2914   23727539.3684
  21363806.051      898786.45849    695861.49349  21363805.4054   21363810.4144
  21386736.186    -2962235.68449  -2294039.59449  21386736.1414   21386740.5904
  21044657.654    -3142223.43249  -2431181.80849  21044657.5674   21044662.3584
 97  3 17 22 14 29.9990000  0  7  2 26 24  5  7  9  4
  22638158.257      864806.59549    670056.33849  22638156.8904   22638162.5344
  24455984.623     1593880.78349   1235773.78249  24455984.6144   24455991.6604
  22706894.824    -4761099.89949  -3683774.49549  22706893.6054   22706902.7954
  23705887.909    -3992346.39749  -3091665.85949  23705887.5164   23705893.3804
  21369283.077      927568.63149    718289.16449  21369282.1644   21369287.0604
  21371589.790    -3041831.17249  -2356062.03049  21371589.5164   21371594.2684
  21028777.684    -3225672.53049  -2496207.04849  21028777.4404   21028782.7624
 97  3 17 22 14 59.9990000  0  7  2 26 24  5  7  9  4
  22643462.220      892680.34349    691776.11549  22643461.2384   22643468.8074
  24464680.873     1639580.41049   1271383.78649  24464681.1144   24464688.5454
  22681735.476    -4893310.58449  -3786795.72749  22681734.2124   22681744.1074
  23684241.638    -4106098.05249  -3180303.42549  23684240.9114   23684247.2164
  21374787.572      956495.28649    740829.40949  21374786.6234   21374791.3614
  21356536.424    -3120936.95049  -2417702.85549  21356536.2184   21356540.9204
  21012993.330    -3308619.26249  -2560840.83349  21012993.4574   21012998.0214
 97  3 17 22 15 29.9990000  0  7  2 26 24  5  7  9  4
  22648809.512      920781.03549    713672.72149  22648808.8764   22648814.6974
  24473376.626     1685277.30649   1306991.66849  24473376.8944   24473386.4894
  22656616.840    -5025308.77749  -3889651.38849  22656616.4014   22656625.8254
  23662594.369    -4219855.48249  -3268945.48649  23662593.9174   23662599.9344
  21380322.863      985582.40249    763494.69649  21380322.4714   21380326.7664
  21341576.230    -3199553.47349  -2478962.45249  21341576.2444   21341580.2314
  20997310.287    -3391034.50749  -2625060.46849  20997310.8044   20997314.9324
 97  3 17 22 15 59.9990000  0  7  2 26 24  5  7  9  4
  22654199.983      949107.49149    735745.23749  22654198.0954   22654206.1244
  24482075.002     1730988.71149   1342610.87049  24482074.1434   24482084.5404
  22631541.594    -5157079.90149  -3992330.11249  22631541.9404   22631549.6824
  23640945.147    -4333622.67349  -3357595.15649  23640943.4154   23640950.8914
  21385890.416     1014839.14249    786292.15049  21385889.7374   21385894.2374
  21326706.240    -3277696.45449  -2539853.07649  21326706.0894   21326710.2494
  20981731.958    -3472900.10149  -2688851.80449  20981732.3594   20981736.2164
 97  3 17 22 16 29.9990000  0  7  2 26 24  5  7  9  4
  22659631.100      977647.13349    757983.88249  22659631.2344   22659637.0164
  24490774.284     1776704.71549   1378233.66649  24490775.7994   24490783.2754
  22606506.567    -5288640.73649  -4094844.95849  22606507.1414   22606512.7304
  23619292.123    -4447410.24649  -3446260.69749  23619292.0144   23619298.7864
  21391486.562     1044247.09649    809207.43849  21391485.8434   21391490.5564
  21311922.596    -3355385.29049  -2600389.81249  21311922.5434   21311926.9774
  20966253.638    -3554239.00849  -2752232.74149  20966253.7754   20966257.9444
 97  3 17 22 16 59.9990000  0  7  2 26 24  5  7  9  4
  22665107.543     1006425.65149    780408.66349  22665106.6434   22665113.1964
  24499479.028     1822445.27349   1413875.50549  24499481.3824   24499486.5524
  22581517.556    -5419960.70749  -4197172.10449  22581517.5814   22581522.9014
  23597641.645    -4561184.61649  -3534915.92949  23597641.9324   23597647.2714
  21397115.999     1073829.99849    832259.03949  21397115.2854   21397119.4524
  21297230.380    -3432593.25849  -2660551.85749  21297229.7454   21297234.7344
  20950881.960    -3635018.09649  -2815177.44949  20950882.2464   20950886.5774
 97  3 17 22 17 29.9990000  0  7  2 26 24  5  7  9  4
  22670629.278     1035443.44149    803019.91449  22670627.8614   22670635.7234
  24508189.610     1868216.75949   1449541.47849  24508190.1734   24508196.6844
  22556573.645    -5551042.33349  -4299313.53949  22556573.6194   22556579.4014
  23575994.418    -4674942.16849  -3623558.04749  23575994.2194   23575999.9144
  21402779.689     1103592.96149    855450.95749  21402778.8454   21402783.4814
  21282628.553    -3509325.99849  -2720343.60349  21282627.9934   21282632.1574
  20935616.391    -3715239.84749  -2877687.88049  20935616.3644   20935620.9044
 97  3 17 22 17 59.9990000  0  7  2 26 24  5  7  9  4
  22676196.964     1064702.43849    825819.12349  22676197.3754   22676202.5494
  24516906.776     1914024.99149   1485236.13049  24516905.1404   24516914.0324
  22531672.690    -5681896.91349  -4401278.05949  22531672.6184   22531678.7614
  23554354.145    -4788664.25749  -3712172.54149  23554353.3704   23554359.0974
  21408479.293     1133544.72449    878789.99849  21408478.6494   21408483.0244
  21268119.728    -3585569.87149  -2779754.41249  21268119.2074   21268123.7904
  20920455.493    -3794910.54949  -2939768.91949  20920455.6504   20920459.1374
 97  3 17 22 18 29.9990000  0  7  2 26 24  5  7  9  4
  22681814.013     1094219.01549    848819.03449  22681813.7174   22681820.0774
  24525631.580     1959877.12749   1520965.00549  24525631.7384   24525640.6354
  22506816.477    -5812515.85749  -4503058.97549  22506816.3154   22506823.3904
  23532724.765    -4902327.46749  -3800741.13849  23532721.9664   23532730.0354
  21414217.069     1163697.51649    902285.68249  21414216.4064   21414221.0794
  21253708.626    -3661300.43349  -2838765.23149  21253708.3944   21253713.1094
  20905401.563    -3874019.63649  -3001412.31949  20905401.6324   20905405.3514
 97  3 17 22 18 59.9990000  0  7  2 26 24  5  7  9  4
  22687475.352     1123968.95149    872000.79149  22687475.8674   22687480.5014
  24534363.297     2005760.79749   1556718.40349  24534364.0634   24534370.4384
  22482003.212    -5942908.88949  -4604663.85149  22482002.2844   22482009.7514
  23511101.914    -5015954.69449  -3889281.75149  23511100.7544   23511107.9314
  21419989.604     1194032.89049    925923.63649  21419988.7604   21419993.3174
  21239393.385    -3736527.15449  -2897383.43849  21239393.1844   21239397.9564
  20890453.805    -3952570.77849  -3062620.96749  20890453.7104   20890458.0204
 97  3 17 22 19 29.9990000  0  7  2 26 24  5  7  9  4
  22693182.569     1153959.74849    895370.21749  22693182.9264   22693186.9354
  24543101.263     2051676.96749   1592497.12049  24543101.8744   24543108.0524
  22457235.082    -6073065.58149  -4706084.57749  22457234.7504   22457241.7064
  23489485.556    -5129548.13449  -3977796.04449  23489484.0694   23489492.6384
  21425797.845     1224555.70749    949707.64249  21425797.4494   21425802.2934
  21225175.547    -3811242.04149  -2955602.81149  21225175.0174   21225179.9274
  20875611.725    -4030566.17249  -3123396.56949  20875611.6454   20875616.2334
 97  3 17 22 19 59.9990000  0  7  2 26 24  5  7  9  4
  22698937.421     1184201.35049    918935.07949  22698936.9034   22698943.7214
  24551846.636     2097633.83349   1628307.55049  24551846.6404   24551854.4814
  22432517.074    -6202959.88449  -4807300.83749  22432517.0724   22432524.0704
  23467879.691    -5243085.72049  -4066266.83549  23467878.0864   23467886.3724
  21431642.718     1255270.36449    973641.13249  21431642.2034   21431647.1064
  21211060.244    -3885418.33949  -3013402.51649  21211060.2494   21211064.9534
  20860879.009    -4107987.16849  -3183724.58449  20860879.0944   20860882.8984
 97  3 17 22 20 29.9990000  0  7  2 26 24  5  7  9  4
  22704739.340     1214690.70049    942692.98349  22704739.3264   22704744.8554
  24560598.164     2143626.91549   1664146.22549  24560596.3534   24560607.2594
  22407851.792    -6332578.31349  -4908302.11149  22407852.5174   22407858.9404
  23446281.439    -5356583.52649  -4154706.59549  23446279.7784   23446287.8474
  21437520.581     1286157.99649    997709.41049  21437520.2044   21437524.9044
  21197047.656    -3959055.19749  -3070781.87149  21197047.5894   21197052.0104
  20846255.906    -4184832.03149  -3243603.66149  20846256.1174   20846259.6614
 97  3 17 22 20 59.9990000  0  7  2 26 24  5  7  9  4
  22710587.225     1245420.86649    966638.55449  22710586.3584   22710594.1934
  24569355.315     2189648.22849   1700006.90149  24569355.8994   24569363.9994
  22383238.097    -6461925.28649  -5009091.86849  22383238.2074   22383244.9774
  23424689.508    -5470048.33849  -4243120.67649  23424688.8154   23424695.8554
  21443429.235     1317207.75949   1021904.02749  21443429.0534   21443433.3444
  21183137.134    -4032156.15249  -3127743.64049  21183137.4294   21183141.2824
  20831741.823    -4261104.33849  -3303036.58649  20831741.4264   20831745.8604
 97  3 17 22 21 29.9990000  0  7  2 26 24  5  7  9  4
  22716484.296     1276409.90149    990785.81949  22716483.8154   22716490.4794
  24578118.921     2235697.17849   1735889.04949  24578120.9614   24578125.1404
  22358675.022    -6591005.31149  -5109673.62149  22358674.0824   22358681.4564
  23403106.659    -5583467.99149  -4331499.52449  23403106.2774   23403112.0084
  21449368.157     1348417.00849   1046222.90749  21449367.4624   21449372.2064
  21169328.003    -4104724.43449  -3184290.34249  21169328.2394   21169332.3574
  20817335.053    -4336811.14349  -3362028.87949  20817334.1794   20817339.6044
 97  3 17 22 21 59.9990000  0  7  2 26 24  5  7  9  4
  22722428.903     1307648.93549   1015127.87849  22722427.9204   22722432.2764
  24586887.222     2281773.20949   1771792.35249  24586885.5734   24586894.9704
  22334162.107    -6719820.86149  -5210049.29349  22334161.1624   22334168.7424
  23381530.837    -5696850.79349  -4419849.64949  23381531.2934   23381535.7124
  21455335.945     1379777.60449   1070659.72549  21455335.3704   21455340.1424
  21155618.035    -4176770.92449  -3240430.43749  21155617.9204   21155622.1634
  20803034.350    -4411960.73049  -3420586.96949  20803034.6794   20803038.8014
 97  3 17 22 22 29.9990000  0  7  2 26 24  5  7  9  4
  22728425.406     1339160.96749   1039682.68649  22728423.9504   22728429.6804
  24595660.574     2327881.59949   1807720.91049  24595659.0904   24595669.4374
  22309700.383    -6848366.78549  -5310214.87249  22309699.4164   22309705.6254
  23359961.856    -5810198.26649  -4508172.22649  23359961.5254   23359966.7574
  21461333.032     1411292.57749   1095216.84249  21461332.1194   21461337.0864
  21142007.668    -4248294.03649  -3296162.70349  21142007.4934   21142011.7744
  20788840.840    -4486548.58149  -3478707.33649  20788840.7654   20788844.9444
 97  3 17 22 22 59.9990000  0  7  2 26 24  5  7  9  4
  22734472.867     1370941.74449   1064446.88349  22734472.8624   22734478.9054
  24604437.124     2374001.01949   1843658.04649  24604440.4004   24604446.8054
  22285289.690    -6976644.04249  -5410171.09949  22285289.6854   22285295.3454
  23338400.497    -5923503.63749  -4596462.04149  23338400.0024   23338406.1534
  21467357.999     1442953.53549   1119887.71549  21467357.2884   21467362.3334
  21128495.314    -4319301.68149  -3351493.30149  21128495.1274   21128499.2334
  20774752.498    -4560582.95849  -3536396.42549  20774752.2284   20774756.6384
 97  3 17 22 23 29.9990000  0  7  2 26 24  5  7  9  4
  22740570.677     1402986.28949   1089416.63849  22740570.1314   22740578.0544
  24613214.587     2420121.05349   1879595.61949  24613217.5144   24613222.0624
  22260932.127    -7104644.53349  -5509911.66649  22260932.6274   22260937.6084
  23316846.607    -6036770.12049  -4684721.54149  23316845.0444   23316852.5804
  21473409.409     1474753.83749   1144667.17149  21473408.8384   21473413.2974
  21115080.208    -4389798.55549  -3406425.89449  21115080.0144   21115084.5484
  20760769.269    -4634064.74749  -3593654.93049  20760769.0994   20760773.7944
 97  3 17 22 23 59.9990000  0  7  2 26 24  5  7  9  4
  22746716.417     1435281.07249   1114581.36949  22746715.8764   22746721.0184
  24621989.739     2466230.60649   1915525.02849  24621989.9214   24621997.9484
  22236630.871    -7232350.42449  -5609422.66449  22236631.4504   22236636.5844
  23295298.663    -6150004.95349  -4772956.39349  23295298.6604   23295303.3474
  21479488.404     1506698.93549   1169559.45149  21479487.5504   21479492.4314
  21101765.071    -4459770.25349  -3460949.28349  21101764.9124   21101768.9784
  20746894.234    -4706978.47649  -3650470.79449  20746893.9544   20746898.9414
 97  3 17 22 24 29.9990000  0  7  2 26 24  5  7  9  4
  22752911.479     1467838.49449   1139950.75549  22752910.6984   22752916.1574
  24630760.332     2512321.50149   1951439.94949  24630758.1014   24630767.5184
  22212386.944    -7359754.91849  -5708698.80949  22212386.1854   22212392.5644
  23273758.817    -6263197.88449  -4861158.59249  23273758.3324   23273764.5824
  21485596.128     1538796.06049   1194570.19649  21485595.3724   21485600.6014
  21088552.381    -4529203.66249  -3515053.22649  21088552.0694   21088556.5994
  20733131.352    -4779302.03749  -3706826.79249  20733131.7124   20733135.4934
 97  3 17 22 24 59.9990000  0  7  2 26 24  5  7  9  4
  22759154.409     1500646.10149   1165515.10849  22759153.7864   22759161.0044
  24639526.571     2558391.47649   1987338.56749  24639526.4314   24639535.7394
  22188200.165    -7486856.97449  -5807739.29749  22188199.0194   22188205.3914
  23252227.877    -6376342.73849  -4949323.33249  23252226.4594   23252233.4204
  21491735.923     1571060.79249   1219711.55249  21491735.0914   21491740.4344
  21075442.912    -4598093.89449  -3568733.89749  21075442.4154   21075447.1074
  20719480.980    -4851035.97349  -3762723.32449  20719481.6814   20719485.1534
 97  3 17 22 25 29.9990000  0  7  2 26 24  5  7  9  4
  22765448.004     1533716.27749   1191284.02749  22765449.3374   22765455.4664
  24648294.264     2604464.50549   2023239.53149  24648294.5814   24648302.0464
  22164070.906    -7613654.89949  -5906542.80649  22164069.8644   22164075.4344
  23230706.848    -6489435.02049  -5037447.10449  23230704.5384   23230712.9554
  21497911.263     1603511.94649   1244998.15449  21497910.4864   21497915.4954
  21062440.979    -4666419.99949  -3621975.00449  21062441.1654   21062445.5274
  20705946.041    -4922163.10449  -3818147.03349  20705945.8724   20705950.2984
 97  3 17 22 25 59.9990000  0  7  2 26 24  5  7  9  4
  22771786.698     1567023.87949   1217237.97849  22771786.1404   22771791.7424
  24657057.392     2650515.95949   2059123.69849  24657057.6944   24657065.4274
  22139994.345    -7740177.00849  -6005131.38749  22139993.7414   22139999.1504
  23209190.024    -6602504.94549  -5125553.46949  23209188.6434   23209196.1004
  21504118.308     1636130.46849   1270415.18149  21504117.8394   21504122.4754
  21049541.611    -4734207.29949  -3674796.26049  21049541.2164   21049545.7604
  20692520.935    -4992711.48449  -3873119.77149  20692520.5064   20692525.0954
 97  3 17 22 26 29.9990000  0  7  2 26 24  5  7  9  4
  22778165.609     1600544.37649   1243357.79649  22778165.3944   22778170.4754
  24665812.922     2696523.99349   2094974.00249  24665814.9324   24665820.9304
  22115963.378    -7866459.89949  -6103533.55449  22115961.8084   22115968.1524
  23187676.286    -6715561.04749  -5213649.03549  23187675.8064   23187681.0354
  21510353.169     1668894.45349   1295945.53949  21510352.5034   21510356.8044
  21036737.981    -4801490.33249  -3727224.57649  21036737.4104   21036742.5504
  20679199.736    -5062714.20049  -3927667.31249  20679200.2184   20679204.0904
 97  3 17 22 26 59.9990000  0  7  2 26 24  5  7  9  4
  22784588.700     1634298.90049   1269659.99049  22784587.3684   22784593.7454
  24674567.199     2742525.55349   2130819.27749  24674567.7624   24674574.3344
  22091985.521    -7992462.17949  -6201717.07149  22091984.7374   22091991.0854
  23166170.941    -6828572.92849  -5301710.15449  23166169.6844   23166175.8234
  21516621.744     1701835.69449   1321614.03149  21516620.5944   21516625.5154
  21024036.155    -4868238.66449  -3779236.25849  21024036.1634   21024040.6144
  20665988.766    -5132138.92449  -3981764.46549  20665989.0244   20665993.5314
 97  3 17 22 27 29.9990000  0  7  2 26 24  5  7  9  4
  22791060.416     1668309.07849   1296161.39749  22791059.2884   22791066.2574
  24683321.410     2788527.57549   2166664.89349  24683322.1524   24683329.6344
  22068067.477    -8118151.61749  -6299656.82749  22068067.8354   22068073.6304
  23144676.897    -6941525.55149  -5389725.06949  23144675.4954   23144680.6184
  21522925.446     1734962.33449   1347426.98249  21522924.4794   21522929.7804
  21011438.793    -4934438.94049  -3830820.87549  21011438.4644   21011443.1254
  20652893.352    -5200955.95849  -4035388.10949  20652893.9094   20652898.3274
 97  3 17 22 27 59.9990000  0  6  2 24  5  7  9  4
  22797579.610     1702567.57349   1322856.30549  22797578.3654   22797586.1014
  22044207.683    -8243536.80549  -6397359.48849  22044207.0834   22044214.0884
  23123192.229    -7054428.02549  -5477700.92549  23123192.2474   23123197.3284
  21529261.363     1768258.67149   1373372.17549  21529260.1134   21529265.8004
  20998941.079    -5000114.51349  -3881996.62649  20998940.4764   20998945.2904
  20639909.688    -5269186.13649  -4088554.45449  20639909.7784   20639914.6014
 97  3 17 22 28 29.9990000  0  6  2 24  5  7  9  4
  22804145.493     1737071.70249   1349742.58549  22804143.9104   22804150.9694
  22020404.699    -8368621.61549  -6494828.11149  22020403.7724   22020410.4254
  23101717.692    -7167276.31149  -5565634.56949  23101717.0944   23101723.7514
  21535625.101     1801701.03949   1399431.16749  21535624.0484   21535629.2844
  20986542.039    -5065271.47449  -3932768.27249  20986541.8994   20986546.3144
  20627036.949    -5336832.83549  -4141266.13249  20627036.8104   20627041.2254
 97  3 17 22 28 59.9990000  0  6  2 24  5  7  9  4
  22810765.633     1771862.55649   1376852.30949  22810764.6764   22810772.3074
  21996665.603    -8493369.82249  -6592034.44849  21996664.8264   21996672.1204
  23080255.053    -7280062.52949  -5653519.84349  23080254.8924   23080259.4384
  21542019.174     1835302.13149   1425613.82749  21542018.8614   21542023.3694
  20974249.635    -5129868.59249  -3983103.67549  20974249.5994   20974253.9914
  20614281.392    -5403862.96349  -4193497.37749  20614281.4504   20614285.1884
 97  3 17 22 29 29.9990000  0  6  2 24  5  7  9  4
  22817437.915     1806924.27449   1404173.08049  22817437.7274   22817444.4304
  21972984.982    -8617812.24049  -6689002.50649  21972985.0294   21972991.3464
  23058801.205    -7392802.68249  -5741369.19249  23058799.3454   23058806.8204
  21548438.386     1869035.08349   1451899.23049  21548437.4174   21548442.7604
  20962062.620    -5193912.07849  -4033007.67849  20962062.4064   20962067.2564
  20601636.870    -5470309.92549  -4245274.19849  20601637.3734   20601641.2334
 97  3 17 22 29 59.9990000  0  6  2 24  5  7  9  4
  22824162.648     1842261.12849   1431708.26249  22824163.3614   22824168.6734
  21949363.284    -8741946.56849  -6785730.48249  21949362.7624   21949369.2294
  23037358.070    -7505486.08149  -5829174.37749  23037356.2704   23037363.8084
  21554885.072     1902912.02149   1478296.82749  21554884.4244   21554888.9894
  20949983.393    -5257388.84049  -4082470.07549  20949982.8394   20949988.0704
  20589105.816    -5536161.82049  -4296587.32949  20589105.9894   20589110.7404
 97  3 17 22 30 29.9990000  0  6  2 24  5  7  9  4
  22830937.923     1877865.38049   1459451.80149  22830937.5614   22830943.5854
  21925803.582    -8865752.97949  -6882202.95849  21925803.3924   21925809.6214
  23015925.212    -7618114.72949  -5916936.88249  23015924.7374   23015930.8964
  21561360.103     1936938.79649   1504811.18349  21561359.3724   21561364.4774
  20938014.745    -5320284.25549  -4131479.47649  20938014.2844   20938019.3874
  20576691.162    -5601401.58749  -4347423.48649  20576691.6434   20576695.9514
 97  3 17 22 30 59.9990000  0  6  2 24  5  7  9  4
  22837763.931     1913735.47249   1487402.45749  22837762.7864   22837769.1204
  21902309.781    -8989213.31949  -6978405.76349  21902310.0964   21902316.0324
  22994503.330    -7730688.04849  -6004656.27149  22994502.3474   22994508.7424
  21567869.704     1971147.23949   1531467.10449  21567869.2154   21567874.4474
  20926158.987    -5382586.20649  -4180026.44249  20926158.7824   20926163.3694
  20564395.821    -5666014.46949  -4397771.15149  20564395.8054   20564400.0804
 97  3 17 22 31 29.9990000  0  6  2 24  5  7  9  4
  22844638.564     1949861.85649   1515552.87149  22844638.1364   22844644.7834
  21878882.075    -9112327.84449  -7074339.10349  21878881.8854   21878887.7484
  22973095.679    -7843185.99749  -6092316.93449  22973095.6074   22973102.0904
  21574416.471     2005550.09149   1558274.50249  21574416.2924   21574421.0404
  20914410.997    -5444322.57749  -4228132.70649  20914410.4554   20914414.9644
  20552219.933    -5729998.40549  -4447628.74649  20552219.6444   20552223.9164
 97  3 17 22 31 59.9990000  0  6  2 24  5  7  9  4
  22851559.400     1986231.11949   1543892.51649  22851557.6164   22851565.0304
  21855518.349    -9235104.88749  -7170009.46449  21855517.2904   21855523.8964
  22951699.037    -7955627.11449  -6179933.30649  22951698.6404   22951703.9774
  21580997.105     2040130.85649   1585220.54349  21580996.5574   21581001.3114
  20902764.961    -5505522.33449  -4275820.81649  20902764.6274   20902769.4064
  20540162.232    -5793361.71749  -4497002.72649  20540162.3814   20540166.5474
 97  3 17 22 32 29.9990000  0  6  2 24  5  7  9  4
  22858522.522     2022822.68249   1572405.40149  22858522.0344   22858528.5654
  21832214.893    -9357563.43749  -7265431.66449  21832214.6624   21832220.7494
  22930309.898    -8068027.71949  -6267518.12749  22930309.0774   22930316.1484
  21587605.440     2074858.17849   1612280.78349  21587604.5224   21587610.0244
  20891218.459    -5566199.45949  -4323101.67949  20891218.1814   20891223.3064
  20528217.284    -5856133.68049  -4545915.91849  20528217.8704   20528221.6634
 97  3 17 22 32 59.9990000  0  6  2 24  5  7  9  4
  22865526.394     2059628.57649   1601085.28149  22865524.9464   22865531.6324
  21808967.116    -9479730.83449  -7360626.99149  21808967.3464   21808973.0134
  22908927.067    -8180395.11649  -6355077.08949  22908925.9614   22908933.1644
  21594234.675     2109695.26449   1639426.55849  21594234.5234   21594238.6374
  20879766.436    -5626380.28149  -4369995.82249  20879766.2294   20879771.0754
  20516379.173    -5918343.75949  -4594391.27649  20516378.9464   20516383.5754
 97  3 17 22 33 29.9990000  0  6  2 24  5  7  9  4
  22872579.260     2096691.05249   1629965.07549  22872578.2844   22872584.8734
  21785779.090    -9601585.72649  -7455578.78949  21785778.8194   21785784.2804
  22887556.726    -8292698.02649  -6442585.81049  22887556.2744   22887562.0904
  21600885.354     2144644.11049   1666659.41649  21600885.1184   21600889.3694
  20868414.673    -5686033.87449  -4416479.13349  20868414.2574   20868418.7944
  20504650.109    -5979979.80249  -4642419.34949  20504649.9864   20504654.9204
 97  3 17 22 33 59.9980000  0  6  2 24  5  7  9  4
  22879685.154     2134032.21249   1659062.04649  22879684.2644   22879690.8224
  21762656.050    -9723098.49049  -7550263.98549  21762655.7974   21762661.1384
  22866200.250    -8404927.42549  -6530037.25049  22866199.6594   22866205.4984
  21607557.837     2179707.64349   1693981.63049  21607557.2994   21607562.1304
  20857172.335    -5745112.19549  -4462514.17249  20857171.7104   20857177.1094
  20493034.289    -6041021.63249  -4689984.38949  20493034.4974   20493038.6194
 97  3 17 22 34 29.9980000  0  6  2 24  5  7  9  4
  22886849.917     2171682.43449   1688399.84249  22886848.7944   22886856.1684
  21739601.781    -9844248.78949  -7644666.76349  21739601.5174   21739607.2354
  22844861.394    -8517063.06149  -6617415.62149  22844860.2524   22844865.9994
  21614257.538     2214914.03249   1721415.16349  21614256.9714   21614261.8794
  20846043.441    -5803594.91249  -4508085.11549  20846043.4744   20846047.8654
  20481535.247    -6101449.63549  -4737071.11549  20481535.2684   20481538.9154
 97  3 17 22 34 59.9980000  0  6  2 24  5  7  9  4
  22894072.326     2209636.48749   1717974.39349  22894070.5854   22894078.6034
  21716614.759    -9965046.37349  -7738794.68949  21716614.6314   21716620.9094
  22823537.101    -8629121.28249  -6704733.64749  22823535.8954   22823541.4194
  21620981.922     2250250.41749   1748950.00349  21620981.0464   21620986.6084
  20835022.709    -5861510.04949  -4553213.80649  20835022.6244   20835026.3804
  20470150.837    -6161274.85949  -4783688.14849  20470150.9494   20470154.6654
 97  3 17 22 35 29.9980000  0  6  2 24  5  7  9  4
  22901346.774     2247863.18649   1747761.38149  22901347.4774   22901349.9794
  21693689.383   -10085520.45049  -7832670.54149  21693688.5124   21693694.7404
  22802223.060    -8741126.88649  -6792010.67149  22802221.3714   22802227.9504
  21627731.057     2285717.73249   1776586.87349  21627730.4544   21627736.2094
  20824107.013    -5918872.40449  -4597911.73849  20824106.1614   20824110.7394
  20458881.213    -6220497.70749  -4829835.79449  20458881.3914   20458885.0324
 97  3 17 22 35 59.9980000  0  6  2 24  5  7  9  4
  22908675.224     2286374.88549   1777770.45749  22908674.7344   22908680.3254
  21670831.638   -10205637.56449  -7926268.24149  21670830.8364   21670837.1664
  22780925.537    -8853046.06249  -6879220.36149  22780925.0444   22780930.5404
  21634514.491     2321364.93949   1804363.91449  21634513.4684   21634518.9874
  20813301.363    -5975655.93849  -4642158.63549  20813301.2514   20813306.3724
  20447735.607    -6279068.59849  -4875475.43649  20447735.5274   20447740.2944
 97  3 17 22 36 29.9980000  0  6  2 24  5  7  9  4
  22916054.125     2325150.89249   1807985.47649  22916054.0364   22916059.8394
  21648040.470   -10325405.46649  -8019593.81649  21648040.4334   21648045.4584
  22759642.213    -8964889.68749  -6966371.17949  22759641.3384   22759648.0214
  21641331.298     2357187.72649   1832277.76149  21641330.9284   21641335.1584
  20802602.675    -6031878.07649  -4685968.07249  20802602.5584   20802606.9794
  20436712.549    -6336995.43149  -4920613.20849  20436712.8184   20436716.7994
 97  3 17 22 36 59.9980000  0  6  2 24  5  7  9  4
  22923479.308     2364168.69549   1838388.89449  22923477.9164   22923484.3704
  21625315.191   -10444828.04949  -8112650.30949  21625315.4464   21625320.5864
  22738372.246    -9076664.50149  -7053468.38449  22738370.8834   22738378.2954
  21648178.807     2393170.72249   1860316.45149  21648178.3084   21648182.7644
  20792010.913    -6087537.89749  -4729339.34449  20792010.5614   20792015.5664
  20425811.716    -6394280.39549  -4965250.81149  20425811.3154   20425815.2024
 97  3 17 22 37 29.9980000  0  6  2 24  5  7  9  4
  22930947.734     2403418.16849   1868972.86349  22930945.2074   22930954.1114
  21602658.272   -10563891.29249  -8205426.78549  21602658.1514   21602663.4604
  22717116.109    -9188365.60449  -7140508.13749  22717114.9694   22717121.3724
  21655056.474     2429312.54249   1888478.90649  21655055.9374   21655060.2684
  20781529.612    -6142617.43849  -4772258.46349  20781529.7564   20781533.8464
  20415032.741    -6450923.03849  -5009387.91949  20415032.0674   20415036.3884
 97  3 17 22 37 59.9980000  0  6  2 24  5  7  9  4
  22938464.208     2442918.85849   1899752.59749  22938464.3624   22938471.1504
  21580077.934   -10682551.96149  -8297889.58449  21580077.2434   21580083.6964
  22695875.984    -9299981.72149  -7227481.68549  22695874.5534   22695880.7044
  21661962.064     2465602.14949   1916756.51549  21661961.4164   21661965.7944
  20771161.586    -6197102.14349  -4814714.07049  20771161.1944   20771165.8064
  20404375.083    -6506929.05449  -5053028.94049  20404375.7054   20404379.2054
 97  3 17 22 38 29.9980000  0  6  2 24  5  7  9  4
  22946030.561     2482677.24349   1930733.10849  22946031.3934   22946035.6284
  21557573.936   -10800810.48149  -8390039.02049  21557573.1734   21557579.9234
  22674653.166    -9411508.12249  -7314385.29849  22674652.4554   22674657.7524
  21668892.738     2502022.56649   1945136.06249  21668891.6584   21668896.9484
  20760908.467    -6250982.59049  -4856698.83349  20760908.0224   20760913.0074
  20393835.764    -6562314.09049  -5096186.08349  20393835.4524   20393840.2994
 97  3 17 22 38 59.9980000  0  6  2 24  5  7  9  4
  22953649.773     2522714.78449   1961931.13749  22953648.4004   22953653.8054
  21535146.339   -10918666.68949  -8481874.97149  21535146.0894   21535152.2164
  22653450.552    -9522929.33049  -7401206.95949  22653450.7424   22653455.9274
  21675849.353     2538579.52349   1973621.99749  21675848.8224   21675854.0734
  20750770.935    -6304255.55049  -4898210.21349  20750770.4214   20750775.7274
  20383413.105    -6617084.34049  -5138864.18449  20383412.2974   20383417.4294
 97  3 17 22 39 29.9980000  0  6  2 24  5  7  9  4
  22961319.528     2563022.03349   1993339.36949  22961318.2004   22961326.5874
  21512791.754   -11036141.15249  -8573413.45449  21512791.9444   21512796.8014
  22632264.381    -9634264.00549  -7487961.19049  22632263.5404   22632268.9574
  21682830.458     2575265.11549   2002208.16549  21682829.3704   21682834.6124
  20740746.111    -6356936.35949  -4939260.18649  20740746.1704   20740750.9514
  20373103.869    -6671258.55949  -5181077.83949  20373103.4844   20373107.7114
 97  3 17 22 39 59.9980000  0  6  2 24  5  7  9  4
  22969041.313     2603599.91449   2024958.46549  22969041.9034   22969048.1014
  21490507.990   -11153243.98549  -8664662.34249  21490508.4914   21490512.4744
  22611093.698    -9745517.36449  -7574652.05249  22611093.9054   22611098.8244
  21689835.759     2612079.06249   2030894.35349  21689834.6504   21689839.8924
  20730833.068    -6409030.37349  -4979852.91949  20730832.6934   20730837.8364
  20362908.622    -6724834.98049  -5222825.66949  20362909.0714   20362912.2744
 97  3 17 22 40 29.9980000  0  6  2 24  5  7  9  4
  22976810.428     2644425.60349   2056770.62349  22976810.4554   22976816.6974
  21468286.628   -11270018.73949  -8755655.59849  21468286.4654   21468291.1014
  22589934.447    -9856710.44749  -7661295.94949  22589933.2054   22589939.1664
  21696864.313     2649014.69949   2059675.35049  21696863.9744   21696868.4884
  20721026.930    -6460561.30749  -5020006.87449  20721026.1224   20721031.7934
  20352825.088    -6777824.89449  -5264116.48449  20352825.5824   20352828.8534
 97  3 17 22 40 59.9980000  0  6  2 24  5  7  9  4
  22984623.702     2685484.21149   2088764.29849  22984623.4964   22984628.6384
  21446125.177   -11386476.91449  -8846402.16949  21446124.1874   21446130.2254
  22568781.356    -9967870.13749  -7747913.82249  22568780.8384   22568786.4774
  21703912.366     2686051.43349   2088535.11949  21703912.0644   21703916.1094
  20711323.437    -6511553.02749  -5059740.67349  20711323.4294   20711328.1684
  20342851.497    -6830236.59649  -5304956.74049  20342851.6974   20342855.4804
 97  3 17 22 41 29.9980000  0  6  2 24  5  7  9  4
  22992485.590     2726799.16549   2120957.71549  22992485.2544   22992490.2254
  21424032.644   -11502572.36849  -8936866.11249  21424032.1814   21424038.3304
  22547642.892   -10078952.52949  -7834471.47449  22547641.3634   22547647.8124
  21710983.508     2723210.55349   2117490.25849  21710982.0704   21710988.0174
  20701731.650    -6561958.58249  -5099017.72049  20701731.3304   20701735.9674
  20332999.119    -6882011.07949  -5345300.47349  20332998.8384   20333003.6624
 97  3 17 22 41 59.9980000  0  6  2 24  5  7  9  4
  23000395.765     2768366.06749   2153347.45449  23000395.2184   23000399.3524
  21402010.620   -11618298.97049  -9027042.64249  21402010.5364   21402016.5444
  22526520.338   -10189951.64349  -7920964.22349  22526519.5154   22526526.4714
  21718075.340     2760479.79749   2146531.22949  21718074.2904   21718079.9764
  20692249.667    -6611786.66149  -5137844.78349  20692249.8834   20692254.4844
  20323269.906    -6933138.04849  -5385139.65149  20323269.8534   20323274.4204
 97  3 17 22 42 29.9980000  0  6  2 24  5  7  9  4
  23008355.669     2810196.78649   2185942.78049  23008355.8474   23008362.2994
  21380061.067   -11733645.20749  -9116922.77049  21380061.5314   21380066.4924
  22505416.607   -10300851.81249  -8007379.87149  22505415.5954   22505422.0064
  21725188.082     2797857.51349   2175656.70949  21725187.9454   21725193.0884
  20682879.890    -6661025.84249  -5176212.96949  20682879.9604   20682884.5124
  20313666.721    -6983602.68649  -5424462.72749  20313666.5414   20313670.9704
 97  3 17 22 42 59.9980000  0  6  2 24  5  7  9  4
  23016361.878     2852271.16349   2218727.96749  23016362.5544   23016367.2704
  21358184.553   -11848608.20549  -9206504.27249  21358184.1774   21358189.7514
  22484330.321   -10411660.74549  -8093724.42949  22484329.7824   22484335.4424
  21732316.421     2835316.55249   2204845.55249  21732315.7514   21732321.2314
  20673619.977    -6709687.07349  -5214130.80249  20673619.8214   20673624.4754
  20304187.936    -7033413.94149  -5463276.66249  20304188.9034   20304192.2094
 97  3 17 22 43 29.9980000  0  6  2 24  5  7  9  4
  23024408.448     2894555.46149   2251676.73549  23024407.8744   23024414.1694
  21336377.174   -11963206.60449  -9295801.66949  21336376.4344   21336381.8544
  22463255.748   -10522408.13049  -8180021.04249  22463256.0514   22463260.8174
  21739457.701     2872843.74949   2234087.50849  21739456.8674   21739462.3114
  20664463.897    -6757802.62249  -5251623.42749  20664463.7394   20664468.6404
  20294830.189    -7082590.58149  -5501596.08549  20294830.3714   20294834.5394
 97  3 17 22 43 59.9980000  0  6  2 24  5  7  9  4
  23032497.652     2937063.32049   2284799.71649  23032497.0544   23032503.6614
  21314640.893   -12077430.68249  -9384807.38649  21314640.5214   21314646.0864
  22442191.723   -10633100.97049  -8266275.14949  22442191.1044   22442196.3324
  21746616.482     2910463.75949   2263401.78649  21746615.6714   21746621.7574
  20655412.291    -6805369.39249  -5288688.42949  20655411.8964   20655417.1034
  20285590.341    -7131145.91349  -5539431.38449  20285590.3184   20285594.2564
 97  3 17 22 44 29.9980000  0  6  2 24  5  7  9  4
  23040634.927     2979824.17449   2318119.81149  23040635.3704   23040639.5634
  21292980.561   -12191256.14549  -9473502.50449  21292980.0674   21292985.6204
  22421140.924   -10743723.36949  -8352474.36549  22421140.1284   22421145.0544
  21753797.813     2948201.65549   2292807.91449  21753797.0504   21753802.4294
  20646470.704    -6852357.15449  -5325302.25949  20646470.2864   20646475.3194
  20276468.283    -7179082.61549  -5576784.63549  20276468.4434   20276472.4904
 97  3 17 22 44 59.9980000  0  6  2 24  5  7  9  4
  23048821.747     3022844.65249   2351642.22549  23048821.7734   23048824.7494
  21271399.657   -12304664.28749  -9561872.43249  21271398.9674   21271404.6584
  22400105.326   -10854265.88849  -8438611.35049  22400104.1114   22400109.9244
  21761008.341     2986093.46149   2322333.97349  21761007.7184   21761012.4124
  20637640.964    -6898757.69449  -5361458.52149  20637640.8594   20637645.8114
  20267464.082    -7226400.27949  -5613655.51749  20267463.9374   20267468.1504
 97  3 17 22 45 29.9980000  0  6  2 24  5  7  9  4
  23057060.852     3066140.93349   2385379.55049  23057058.6004   23057064.4934
  21249897.615   -12417658.31049  -9649919.67249  21249897.5224   21249902.2564
  22379086.563   -10964720.32949  -8524679.69149  22379085.9914   22379090.9384
  21768251.372     3024155.82049   2351992.91549  21768251.1234   21768254.5244
  20628922.293    -6944574.74149  -5397160.12049  20628921.9644   20628927.0504
  20258575.560    -7273109.20349  -5650052.06049  20258575.2704   20258579.1984
 97  3 17 22 45 59.9980000  0  6  2 24  5  7  9  4
  23065353.660     3109722.88349   2419339.47049  23065352.4194   23065357.9114
  21228474.473   -12530237.58249  -9737643.72649  21228474.5334   21228479.3954
  22358088.270   -11075067.90749  -8610664.77549  22358087.3284   22358092.1024
  21775525.762     3062382.71149   2381780.06849  21775525.1684   21775530.0724
  20620317.428    -6989793.21249  -5432395.28149  20620317.3214   20620322.3444
  20249801.787    -7319215.49549  -5685979.01649  20249802.0544   20249805.5204
 97  3 17 22 46 29.9980000  0  6  2 24  5  7  9  4
  23073700.582     3153586.45049   2453518.81449  23073702.4784   23073705.9004
  21207129.169   -12642407.91449  -9825049.12549  21207128.5904   21207134.6814
  22337110.304   -11185306.73949  -8696565.11049  22337109.2614   22337114.7844
  21782829.523     3100763.78249   2411687.37649  21782828.3224   21782833.9004
  20611825.654    -7034418.22949  -5467168.01949  20611825.7004   20611830.4654
  20241144.301    -7364710.91349  -5721429.97649  20241143.9284   20241148.5604
 97  3 17 22 46 59.9980000  0  6  2 24  5  7  9  4
  23082096.085     3197702.13749   2487894.60749  23082094.6884   23082100.4984
  21185859.967   -12754176.99849  -9912141.87449  21185859.2154   21185865.3414
  22316149.474   -11295456.40949  -8782395.97049  22316149.1514   22316153.6224
  21790158.399     3139278.37049   2441698.74649  21790157.2584   21790163.7364
  20603440.903    -7078480.87449  -5501502.53949  20603440.5954   20603445.6144
  20232603.357    -7409593.12249  -5756403.10549  20232603.3504   20232607.5134
 97  3 17 22 47 29.9980000  0  6  2 24  5  7  9  4
  23090536.377     3242056.35149   2522456.27349  23090535.5554   23090541.3954
  21164665.880   -12865551.87249  -9998927.44349  21164665.7174   21164671.0854
  22295201.458   -11405539.28049  -8868174.77249  22295200.2244   22295205.5044
  21797502.573     3177872.27749   2471771.90849  21797502.1434   21797508.1554
  20595161.010    -7121991.87649  -5535407.20249  20595160.8674   20595165.3974
  20224177.467    -7453871.18449  -5790905.47449  20224177.5034   20224181.3864
 97  3 17 22 47 59.9980000  0  6  2 24  5  7  9  4
  23099017.823     3286627.41149   2557186.93549  23099016.4444   23099024.5244
  21143546.497   -12976535.44849 -10085408.09749  21143546.0584   21143551.7884
  22274260.498   -11515583.95249  -8953923.81849  22274258.6424   22274265.5884
  21804856.791     3216518.58749   2501885.90249  21804856.4124   21804861.6864
  20586986.935    -7164947.05149  -5568878.76049  20586986.6364   20586991.3874
  20215865.129    -7497552.77249  -5824943.05449  20215865.4884   20215869.3144
 97  3 17 22 48 29.9980000  0  6  2 24  5  7  9  4
  23107545.532     3331441.82349   2592107.20649  23107545.8094   23107552.0914
  21122510.054   -13087082.47749 -10171548.58349  21122509.6214   21122515.1034
  22253331.300   -11625565.69249  -9039623.82149  22253329.7404   22253335.7834
  21812227.251     3255249.84049   2532066.08549  21812226.6004   21812231.9494
  20578925.776    -7207309.39049  -5601888.37449  20578925.4864   20578930.2474
  20207673.576    -7540599.85549  -5858486.20849  20207674.0184   20207677.5344
 97  3 17 22 48 59.9980000  0  6  2 24  5  7  9  4
  23116123.767     3376519.04649   2627232.26849  23116123.5314   23116129.4674
  21101562.563   -13197161.89349 -10257324.70649  21101562.1624   21101568.1084
  22232423.948   -11735433.97049  -9125235.42349  22232423.6234   22232428.9284
  21819616.902     3294083.38149   2562325.97349  21819616.9044   21819621.6484
  20570984.060    -7249043.04549  -5634408.10549  20570983.4154   20570988.1024
  20199607.663    -7582986.83849  -5891515.00949  20199607.3534   20199611.8134
 97  3 17 22 49 29.9980000  0  6  2 24  5  7  9  4
  23124753.481     3421867.57049   2662568.71849  23124752.5474   23124758.7484
  21080702.548   -13306781.19649 -10342742.28649  21080701.8544   21080708.0614
  22211542.583   -11845167.22849  -9210741.81049  22211541.5504   22211547.8074
  21827029.137     3333033.96249   2592677.06149  21827029.0324   21827033.1674
  20563166.970    -7290121.62449  -5666417.38749  20563166.7464   20563171.0584
  20191667.601    -7624711.38149  -5924027.62849  20191667.4994   20191672.2594
 97  3 17 22 49 59.9980000  0  6  2 24  5  7  9  4
  23133431.263     3467471.38849   2698104.12149  23133430.8494   23133437.7724
  21059926.596   -13415958.36449 -10427815.35849  21059926.2064   21059932.6654
  22190689.109   -11954752.52149  -9296132.89849  22190688.4064   22190694.6624
  21834466.088     3372114.77149   2623129.61749  21834465.0244   21834469.9644
  20555471.636    -7330561.23849  -5697928.77449  20555471.4634   20555476.4154
  20183851.624    -7665784.50249  -5956032.64549  20183851.7004   20183855.9954
 97  3 17 22 50 29.9980000  0  6  2 24  5  7  9  4
  23142155.124     3513316.40849   2733827.46849  23142155.2894   23142161.7414
  21039231.789   -13524709.92149 -10512556.78349  21039231.9834   21039237.2584
  22169865.294   -12064182.90449  -9381403.28049  22169865.3024   22169870.2844
  21841926.069     3411317.65249   2653677.30649  21841925.2104   21841930.3534
  20547892.400    -7370389.99349  -5728964.16449  20547892.2304   20547896.9534
  20176157.379    -7706217.95449  -5987539.21849  20176157.7374   20176161.0034
 97  3 17 22 50 59.9980000  0  6  2 24  5  7  9  4
  23150927.867     3559415.94749   2769749.12749  23150928.8054   23150934.1424
  21018616.366   -13633045.36049 -10596973.95649  21018616.1554   21018621.4854
  22149070.974   -12173458.40649  -9466552.96249  22149070.2584   22149075.9884
  21849409.083     3450641.72349   2684319.42949  21849408.0304   21849413.0594
  20540427.409    -7409618.94449  -5759532.18849  20540427.7284   20540431.6544
  20168585.297    -7746010.55449  -6018546.40749  20168586.1484   20168588.5764
 97  3 17 22 51 29.9980000  0  6  2 24  5  7  9  4
  23159752.761     3605789.70949   2805884.46649  23159751.6384   23159758.1844
  20998083.366   -13740948.10249 -10681053.94749  20998083.4294   20998088.5904
  22128302.772   -12282595.35549  -9551594.68949  22128302.1054   22128308.4184
  21856918.583     3490104.34849   2715069.52649  21856917.8014   21856923.4884
  20533077.102    -7448245.71849  -5789630.98549  20533076.9674   20533080.9344
  20161137.540    -7785149.50649  -6049044.27149  20161137.1154   20161141.5024
 97  3 17 22 51 59.9980000  0  6  2 24  5  7  9  4
  23168629.924     3652439.31849   2842234.77449  23168629.2424   23168634.9644
  20977632.952   -13848415.96149 -10764795.08049  20977632.7874   20977638.2884
  22107559.110   -12391604.44349  -9636536.75949  22107558.8654   22107563.7774
  21864450.128     3529682.26849   2745909.44349  21864449.4574   21864455.3154
  20525838.159    -7486286.46249  -5819273.12449  20525838.3284   20525842.5234
  20153812.372    -7823642.46649  -6079038.77649  20153812.3464   20153816.4284
 97  3 17 22 52 29.9980000  0  6  2 24  5  7  9  4
  23177561.088     3699373.96749   2878807.18349  23177560.1794   23177568.7534
  20957266.431   -13955442.26149 -10848192.14649  20957265.8174   20957271.7024
  22086836.895   -12500501.31549  -9721391.39849  22086837.1214   22086841.5074
  21872002.294     3569369.21249   2776834.32149  21872001.2294   21872006.7794
  20518711.506    -7523738.01449  -5848456.15749  20518711.6024   20518715.7434
  20146611.521    -7861483.54249  -6108525.30449  20146611.7814   20146615.5264
 97  3 17 22 52 59.9980000  0  6  2 24  5  7  9  4
  23186547.746     3746599.70749   2915606.41849  23186547.2074   23186554.7634
  20936985.037   -14062020.70649 -10931240.23349  20936984.1674   20936990.5114
  22066134.521   -12609293.57949  -9806164.52349  22066134.2034   22066139.4074
  21879575.502     3609167.31249   2807845.82849  21879574.8564   21879580.6514
  20511698.359    -7560592.77449  -5877174.15549  20511698.2574   20511702.2064
  20139534.610    -7898673.38249  -6137504.37849  20139534.8204   20139538.6654
 97  3 17 22 53 29.9980000  0  6  2 24  5  7  9  4
  23195584.488     3794087.59649   2952609.89849  23195584.8414   23195590.6894
  20916786.329   -14168164.55749 -11013949.67849  20916785.8604   20916792.2024
  22045449.012   -12717996.52649  -9890868.06049  22045448.1644   22045453.1604
  21887165.714     3649053.72849   2838926.13649  21887164.6714   21887169.4384
  20504796.886    -7596860.19949  -5905434.49149  20504796.5554   20504800.6274
  20132577.963    -7935230.95249  -6165990.78049  20132577.8364   20132581.4374
 97  3 17 22 53 59.9980000  0  6  2 24  5  7  9  4
  23204667.058     3841816.03849   2989800.82349  23204667.2634   23204673.4994
  20896667.066   -14273891.87049 -11096334.54349  20896667.4184   20896672.8004
  22024779.634   -12826613.87149  -9975504.90149  22024779.0334   22024783.9154
  21894770.254     3689016.09049   2870065.62649  21894769.7764   21894774.8374
  20498004.534    -7632554.09649  -5933247.92849  20498004.1574   20498008.6014
  20125738.568    -7971172.68149  -6193997.29749  20125738.7314   20125742.0834
 97  3 17 22 54 29.9980000  0  6  2 24  5  7  9  4
  23213796.918     3889793.02049   3027185.42449  23213795.8244   23213802.1264
  20876629.949   -14379188.22449 -11178383.59149  20876629.6504   20876635.0944
  22004128.867   -12935133.62749 -10060065.70349  22004127.7394   22004133.0284
  21902395.756     3729088.26049   2901290.68749  21902395.2674   21902400.8574
  20491325.694    -7667651.77649  -5960596.78049  20491325.7104   20491329.8264
  20119019.431    -8006481.76349  -6221510.84949  20119019.1234   20119023.0284
 97  3 17 22 54 59.9980000  0  6  2 24  5  7  9  4
  23222974.369     3938019.75049   3064764.64849  23222974.4494   23222979.5984
  20856674.866   -14484051.74649 -11260095.37649  20856674.2654   20856679.7924
  21983499.936   -13043538.29949 -10144536.81449  21983498.8704   21983503.5944
  21910044.088     3769278.74449   2932607.92849  21910044.0524   21910048.2904
  20484763.994    -7702133.91449  -5987465.98049  20484763.7934   20484768.1684
  20112421.685    -8041152.36249  -6248526.88949  20112421.6204   20112425.6494
 97  3 17 22 55 29.9980000  0  6  2 24  5  7  9  4
  23232195.075     3986474.82549   3102521.79749  23232193.0374   23232201.6254
  20836799.453   -14588497.26849 -11341481.44249  20836799.1344   20836804.8024
  21962893.146   -13151827.12949 -10228917.65949  21962892.4564   21962898.0104
  21917711.865     3809573.00849   2964006.04049  21917711.1544   21917716.2014
  20478317.156    -7736012.25549  -6013864.68649  20478317.1164   20478321.2504
  20105943.922    -8075193.41449  -6275052.37049  20105944.0354   20105947.8974
 97  3 17 22 55 59.9980000  0  6  2 24  5  7  9  4
  23241460.971     4035167.22749   3140463.87949  23241460.0724   23241467.7254
  20817005.145   -14692517.09649 -11422535.79749  20817005.0674   20817010.2224
  21942312.571   -13259979.31549 -10313192.03149  21942311.5244   21942316.9724
  21925401.986     3849985.38049   2995496.18149  21925400.4114   21925406.5304
  20471987.302    -7769276.24349  -6039784.68049  20471986.8784   20471990.9394
  20099585.090    -8108609.20349  -6301090.63049  20099585.0174   20099589.1414
 97  3 17 22 56 29.9980000  0  6  2 24  5  7  9  4
  23250776.613     4084120.00449   3178608.85149  23250776.8124   23250782.8314
  20797297.283   -14796083.19449 -11503236.60249  20797297.1314   20797303.1454
  21921759.666   -13367985.44649 -10397352.60249  21921758.6224   21921764.5754
  21933115.661     3890522.25249   3027083.35149  21933114.1314   21933120.4114
  20465777.291    -7801909.62549  -6065213.29849  20465776.7084   20465781.0084
  20093346.751    -8141391.26249  -6326635.07949  20093346.8754   20093351.0134
 97  3 17 22 56 59.9980000  0  6  2 24  5  7  9  4
  23260144.035     4133344.82249   3216965.78549  23260144.2174   23260146.7924
  20777679.247   -14899177.31949 -11583569.63249  20777678.7724   20777684.3944
  21901235.290   -13475840.94849 -10481395.80449  21901234.0814   21901239.9364
  21940851.200     3931173.33349   3058759.49849  21940850.5454   21940856.4394
  20459686.327    -7833917.17549  -6090154.24149  20459686.0044   20459690.3324
  20087229.198    -8173538.66649  -6351684.99949  20087229.0114   20087233.4124
 97  3 17 22 57 29.9980000  0  6  2 24  5  7  9  4
  23269562.158     4182838.49549   3255532.24649  23269559.0494   23269567.1774
  20758153.914   -15001783.28649 -11663522.29249  20758153.8594   20758159.2004
  21880738.851   -13583549.96349 -10565324.88649  21880738.0204   21880743.6084
  21948608.506     3971938.16149   3090524.28149  21948607.8854   21948612.9824
  20453711.871    -7865313.43649  -6114618.85949  20453711.6804   20453715.9874
  20081232.466    -8205052.03549  -6376240.85749  20081232.6524   20081236.3954
 97  3 17 22 57 59.9980000  0  6  2 24  5  7  9  4
  23279029.703     4232594.38149   3294303.01249  23279028.1144   23279035.9734
  20738720.735   -15103904.92749 -11743097.54649  20738720.6824   20738725.7244
  21860265.721   -13691136.84649 -10649158.78249  21860265.3434   21860270.1674
  21956384.884     4012803.43349   3122367.32849  21956384.1424   21956389.7634
  20447849.496    -7896120.25749  -6138624.17349  20447848.9394   20447853.5824
  20075353.401    -8235946.95149  -6400314.79849  20075353.6024   20075357.7034
 97  3 17 22 58 29.9980000  0  6  2 24  5  7  9  4
  23288545.771     4282602.86149   3333270.61049  23288544.7264   23288554.4164
  20719382.303   -15205529.58849 -11822285.53949  20719381.8204   20719386.7884
  21839814.879   -13798607.17349 -10732901.84849  21839814.7014   21839819.8384
  21964179.338     4053763.78049   3154284.46549  21964179.1354   21964184.4854
  20442098.093    -7926343.72349  -6162174.92149  20442097.9004   20442102.2824
  20069593.993    -8266212.81349  -6423898.58849  20069594.1394   20069598.3334
 97  3 17 22 58 59.9980000  0  6  2 24  5  7  9  4
  23298106.749     4332843.61849   3372419.17549  23298107.7164   23298114.1514
  20700134.990   -15306674.25249 -11901099.51849  20700134.2454   20700140.2694
  21819388.623   -13905948.10449 -10816544.07049  21819387.8624   21819393.4864
  21971990.314     4094809.72349   3186268.30649  21971989.9884   21971996.3284
  20436456.529    -7955990.45049  -6185276.27949  20436455.8964   20436460.3124
  20063954.928    -8295846.17549  -6446989.50349  20063955.1634   20063959.3644
 97  3 17 22 59 29.9980000  0  6  2 24  5  7  9  4
  23307711.995     4383315.78649   3411748.06249  23307712.1674   23307717.3034
  20680979.265   -15407337.93149 -11979538.71449  20680978.0774   20680984.9064
  21798990.037   -14013142.45949 -10900072.08949  21798988.8444   21798994.3744
  21979819.095     4135950.67549   3218326.18649  21979818.5584   21979824.2474
  20430926.754    -7985049.25149  -6207919.49749  20430926.3444   20430930.7664
  20058437.480    -8324840.41849  -6469582.41349  20058437.9024   20058441.6004
 97  3 17 22 59 59.9970000  0  6  2 24  5  7  9  4
  23317360.508     4434018.56749   3451256.65249  23317357.4494   23317367.0254
  20661914.360   -15507523.51549 -12057605.37649  20661913.9454   20661920.5134
  21778622.365   -14120174.74949 -10983473.83649  21778621.6344   21778627.9434
  21987665.757     4177184.64449   3250456.54749  21987665.3264   21987670.4754
  20425510.670    -8013511.09749  -6230097.56749  20425510.4734   20425515.0444
  20053040.719    -8353201.72849  -6491682.12249  20053041.0994   20053044.2614
 97  3 17 23  0 29.9970000  0  6  2 24  5  7  9  4
  23327052.460     4484953.28749   3490945.99949  23327050.6994   23327060.1764
  20642937.526   -15607247.75049 -12135312.53249  20642937.6224   20642942.8404
  21758284.966   -14227048.34249 -11066751.91049  21758284.3134   21758290.0504
  21995529.786     4218509.47449   3282657.66349  21995529.3924   21995534.0114
  20420208.522    -8041373.82649  -6251808.78349  20420207.9844   20420212.8484
  20047765.933    -8380921.27749  -6513281.75049  20047766.1004   20047769.6194
 97  3 17 23  0 59.9970000  0  6  2 24  5  7  9  4
  23336792.540     4536137.99349   3530830.12449  23336793.0244   23336800.6284
  20624046.245   -15706522.92549 -12212669.76549  20624046.3204   20624051.1104
  21737977.364   -14333765.80249 -11149908.32349  21737976.6724   21737982.2984
  22003411.662     4259929.00249   3314932.59949  22003410.6664   22003416.6724
  20415021.618    -8068630.99749  -6273048.13549  20415021.4854   20415026.0834
  20042614.711    -8407990.80749  -6534374.87949  20042614.8864   20042618.8584
 97  3 17 23  1 29.9970000  0  6  2 24  5  7  9  4
  23346583.333     4587586.01449   3570919.43049  23346585.5354   23346590.5034
  20605239.412   -15805354.35749 -12289681.21849  20605239.1404   20605244.0944
  21717697.189   -14440339.15649 -11232952.44049  21717696.8814   21717701.6194
  22011311.419     4301443.29849   3347281.38249  22011310.4974   22011316.1744
  20409950.854    -8095278.44249  -6293812.37849  20409950.6154   20409955.4294
  20037586.210    -8434415.48049  -6554965.52049  20037585.9284   20037590.2064
 97  3 17 23  1 59.9970000  0  6  2 24  5  7  9  4
  23356426.987     4639312.40549   3611225.64349  23356426.8224   23356432.6704
  20586519.306   -15903728.58049 -12366336.41849  20586518.8404   20586524.6494
  21697443.281   -14546774.29349 -11315888.86049  21697442.2134   21697446.8134
  22019231.235     4343061.81249   3379711.38849  22019231.2534   22019236.1034
  20404997.363    -8121309.31149  -6314096.16949  20404996.9954   20405001.7714
  20032684.020    -8460176.37149  -6575038.93049  20032683.8424   20032688.2144
 97  3 17 23  2 29.9970000  0  6  2 24  5  7  9  4
  23366322.854     4691317.34949   3651748.94249  23366320.0034   23366327.6244
  20567885.628   -16001648.75049 -12442637.81849  20567885.0594   20567890.8254
  21677209.811   -14653102.07649 -11398741.61049  21677208.9514   21677213.7164
  22027168.181     4384770.22249   3412211.43349  22027167.6594   22027173.0494
  20400160.462    -8146727.75149  -6333902.75449  20400160.6234   20400164.7034
  20027906.776    -8485280.52849  -6594600.59749  20027906.8594   20027910.3864
 97  3 17 23  2 59.9970000  0  6  2 24  5  7  9  4
  23376273.287     4743609.72949   3692496.18349  23376273.0834   23376279.0674
  20549341.374   -16099099.20949 -12518573.19849  20549340.4684   20549346.3244
  21656997.925   -14759315.10149 -11481504.93449  21656996.7334   21657001.8724
  22035121.023     4426562.15649   3444776.54349  22035120.8234   22035125.8284
  20395440.259    -8171532.70149  -6353231.29449  20395440.0314   20395444.6514
  20023252.359    -8509739.62649  -6613659.61249  20023252.6414   20023256.2394
 97  3 17 23  3 29.9970000  0  6  2 24  5  7  9  4
  23386278.689     4796187.39649   3733465.72849  23386279.7054   23386284.6214
  20530892.993   -16196045.33349 -12594115.60449  20530892.9194   20530898.2394
  21636812.354   -14865390.09349 -11564160.71149  21636811.1074   21636816.8034
  22043091.496     4468447.51049   3477414.46449  22043090.6564   22043096.3514
  20390836.765    -8195723.94749  -6372081.61549  20390836.5984   20390841.7134
  20018721.623    -8533548.83949  -6632212.23549  20018721.7874   20018725.7164
 97  3 17 23  3 59.9970000  0  6  2 24  5  7  9  4
  23396331.075     4849009.28049   3774625.53349  23396331.6874   23396337.3904
  20512540.084   -16292490.66349 -12669267.76649  20512539.5644   20512544.6854
  21616649.203   -14971347.35349 -11646724.75149  21616648.3264   21616653.2064
  22051075.448     4510403.38549   3510107.33449  22051073.8894   22051079.6834
  20386343.941    -8219334.15549  -6390479.18149  20386343.6684   20386348.2744
  20014306.965    -8556747.69449  -6650289.25549  20014307.3134   20014311.0864
 97  3 17 23  4 29.9970000  0  6  2 24  5  7  9  4
  23406431.555     4902086.59549   3815984.38249  23406430.6754   23406437.1694
  20494288.107   -16388405.12049 -12744006.26349  20494287.6004   20494292.6624
  21596516.652   -15077144.50249 -11729164.03449  21596516.3034   21596520.5694
  22059076.362     4552449.43349   3542870.48749  22059074.5104   22059081.3744
  20381966.945    -8242335.32149  -6408402.17149  20381966.7884   20381971.0254
  20010009.832    -8579329.92349  -6667885.78549  20010009.7294   20010013.9644
 97  3 17 23  4 59.9970000  0  6  2 24  5  7  9  4
  23416574.458     4955391.89849   3857520.94549  23416570.4964   23416581.2964
  20476135.939   -16483795.05449 -12818336.04449  20476135.5264   20476141.2424
  21576416.949   -15182769.25549 -11811468.97749  21576416.4184   21576421.2424
  22067095.428     4594589.93749   3575707.22949  22067095.3084   22067100.3444
  20377703.389    -8264741.27249  -6425861.37449  20377703.8294   20377707.5704
  20005829.145    -8601299.12649  -6685004.64149  20005829.0034   20005833.3944
 97  3 17 23  5 29.9970000  0  6  2 24  5  7  9  4
  23426759.800     5008920.70649   3899231.65249  23426758.5834   23426766.8044
  20458087.040   -16578642.31949 -12892242.97049  20458086.5214   20458092.1224
  21556351.717   -15288212.53849 -11893632.51849  21556351.2794   21556355.9004
  22075137.337     4636848.13949   3608635.67149  22075137.4204   22075141.6634
  20373559.566    -8286517.86649  -6442830.15649  20373559.7384   20373563.3764
  20001767.862    -8622640.83149  -6701634.53549  20001768.1344   20001771.6374
 97  3 17 23  5 59.9970000  0  6  2 24  5  7  9  4
  23436986.531     5062662.40449   3941108.23549  23436985.9724   23436993.2644
  20440136.450   -16672972.85449 -12965747.24749  20440136.2384   20440141.9524
  21536316.877   -15393496.20349 -11975671.69749  21536316.0294   21536321.6674
  22083197.335     4679204.16249   3641640.35449  22083196.2914   22083201.9834
  20369535.422    -8307665.33449  -6459308.70849  20369535.2344   20369539.4864
  19997822.638    -8643373.54549  -6717789.88249  19997822.9554   19997826.8024
 97  3 17 23  6 29.9970000  0  6  2 24  5  7  9  4
  23447251.529     5116603.27049   3983139.99549  23447251.5564   23447259.1904
  20422277.203   -16766823.66549 -13038877.71949  20422276.9424   20422282.8774
  21516306.937   -15498648.94949 -12057608.88049  21516306.1414   21516312.2584
  22091269.890     4721625.09849   3674695.60449  22091269.1634   22091274.6994
  20365625.770    -8328210.73549  -6475318.11649  20365625.5514   20365630.1414
  19993993.029    -8663498.30049  -6733471.51549  19993993.1374   19993997.3094
 97  3 17 23  6 59.9970000  0  6  2 24  5  7  9  4
  23457558.349     5170766.96149   4025345.44549  23457558.0014   23457565.8074
  20404506.375   -16860209.98449 -13111646.24549  20404506.1444   20404511.7964
  21496321.981   -15603670.00049 -12139443.43149  21496321.5564   21496326.6434
  22099354.860     4764110.92349   3707801.42349  22099354.3554   22099359.2504
  20361830.124    -8348157.08049  -6490860.73049  20361829.9984   20361833.8024
  19990281.931    -8682999.81649  -6748667.49249  19990282.0664   19990285.8374
 97  3 17 23  7 29.9970000  0  6  2 24  5  7  9  4
  23467912.506     5225176.57249   4067742.46549  23467913.9714   23467919.8954
  20386820.891   -16953148.39449 -13184065.75049  20386821.1174   20386826.4054
  21476361.248   -15708564.52549 -12221179.38449  21476360.9854   21476366.1164
  22107449.001     4806645.39549   3740945.15249  22107448.6024   22107453.1294
  20358145.637    -8367519.07349  -6505948.00749  20358144.8004   20358149.9144
  19986688.881    -8701881.88049  -6763380.78249  19986689.1434   19986692.9094
 97  3 17 23  7 59.9970000  0  6  2 24  5  7  9  4
  23478318.808     5279860.71949   4110353.43049  23478318.7484   23478325.9494
  20369222.930   -17045627.33049 -13256127.22149  20369222.4614   20369227.8924
  21456429.449   -15813307.61149 -12302797.33549  21456429.5234   21456434.4174
  22115554.727     4849240.84549   3774136.40149  22115553.8814   22115559.3244
  20354570.995    -8386303.13449  -6520584.94249  20354570.4044   20354575.0024
  19983218.036    -8720121.68949  -6777593.61449  19983217.8164   19983222.0164
 97  3 17 23  8 29.9970000  0  6  2 24  5  7  9  4
  23488774.787     5334809.94849   4153170.95949  23488775.0894   23488784.1164
  20351712.421   -17137645.46449 -13327829.63549  20351711.9734   20351717.2974
  21436527.204   -15917895.62149 -12384294.44649  21436526.2724   21436531.7984
  22123669.440     4891884.66249   3807365.34149  22123668.4534   22123674.3434
  20351103.289    -8404526.04249  -6534784.61649  20351103.0944   20351107.2984
  19979869.151    -8737719.01349  -6791305.81249  19979868.8954   19979873.0124
 97  3 17 23  8 59.9970000  0  6  2 24  5  7  9  4
  23499282.370     5390029.58449   4196199.19849  23499282.4254   23499291.4154
  20334293.576   -17229181.60949 -13399156.47049  20334293.0724   20334298.4604
  21416656.889   -16022315.30649 -12465660.39449  21416656.4474   21416661.4104
  22131798.288     4934601.99849   3840651.54949  22131797.6554   22131802.7604
  20347746.027    -8422168.80949  -6548532.23849  20347745.7494   20347750.5614
  19976642.856    -8754673.97449  -6804517.45749  19976643.1584   19976646.6544
 97  3 17 23  9 29.9970000  0  6  2 24  5  7  9  4
  23509840.575     5445512.42149   4239432.51949  23509841.2064   23509849.1004
  20316974.057   -17320195.93549 -13470076.69049  20316973.5524   20316978.9964
  21396817.563   -16126571.48049 -12546898.93849  21396816.6024   21396821.9114
  22139943.945     4977407.84049   3874006.74249  22139943.3164   22139948.4234
  20344501.789    -8439216.91549  -6561816.46749  20344501.2154   20344506.6454
  19973539.692    -8770981.45549  -6817224.57949  19973539.7964   19973543.9974
 97  3 17 23  9 59.9970000  0  6  2 24  5  7  9  4
  23520448.204     5501252.69049   4282866.40749  23520449.9314   23520455.1314
  20299762.499   -17410642.78749 -13540554.72349  20299761.9574   20299767.7794
  21377013.039   -16230644.54849 -12627994.79849  21377012.3724   21377017.0614
  22148111.974     5020330.68649   3907453.09549  22148111.7314   22148116.1414
  20341377.415    -8455635.27349  -6574609.99849  20341377.3774   20341381.7434
  19970561.551    -8786631.84449  -6829419.68249  19970562.0484   19970565.4864
 97  3 17 23 10 29.9970000  0  6  2 24  5  7  9  4
  23531100.400     5557228.47549   4326483.82149  23531100.6884   23531107.7384
  20282654.100   -17500547.21149 -13610610.08849  20282653.1914   20282659.3994
  21357238.128   -16334562.30549 -12708969.64749  21357237.6724   21357242.0084
  22156299.913     5063359.32549   3940981.88549  22156298.7044   22156303.9184
  20338370.886    -8471435.03549  -6586921.51249  20338370.4894   20338375.0124
  19967702.658    -8801655.45449  -6841126.37749  19967702.7774   19967706.2774
 97  3 17 23 10 59.9970000  0  6  2 24  5  7  9  4
  23541795.571     5613429.94049   4370277.09949  23541795.1844   23541802.2284
  20265647.719   -17589915.37249 -13680247.59349  20265647.8844   20265653.5024
  21337492.797   -16438324.06949 -12789822.93949  21337491.8424   21337497.1314
  22164509.176     5106500.91049   3974598.69549  22164508.4004   22164514.2194
  20335482.333    -8486614.38849  -6598749.58649  20335482.2894   20335486.6664
  19964960.261    -8816066.95449  -6852356.10049  19964959.9764   19964964.1864
 97  3 17 23 11 29.9970000  0  6  2 24  5  7  9  4
  23552534.723     5669865.31049   4414252.65749  23552533.3604   23552541.1334
  20248746.954   -17678730.29349 -13749453.99349  20248747.2344   20248751.9824
  21317784.655   -16541889.66149 -12870523.36449  21317784.0554   21317789.3744
  22172743.944     5149774.32749   4008318.22349  22172743.9994   22172748.4274
  20332715.349    -8501155.53349  -6610080.35349  20332715.3544   20332719.7824
  19962336.601    -8829853.70849  -6863099.02649  19962336.1924   19962341.0714
 97  3 17 23 11 59.9970000  0  6  2 24  5  7  9  4
  23563313.439     5726506.28249   4458388.36849  23563312.8484   23563319.6584
  20231943.329   -17767034.69049 -13818262.57949  20231943.0274   20231947.5174
  21298113.294   -16645263.47549 -12951074.36049  21298113.2634   21298117.2474
  22180996.119     5193138.78949   4042108.69749  22180995.9364   22181000.2424
  20330064.246    -8515087.46249  -6620936.39849  20330063.6904   20330068.4894
  19959826.347    -8843044.61649  -6873377.65149  19959827.0194   19959830.3724
 97  3 17 23 12 29.9970000  0  6  2 24  5  7  9  4
  23574132.200     5783358.87649   4502689.02549  23574131.8484   23574139.5424
  20215234.119   -17854842.12449 -13886683.92149  20215233.7654   20215239.1614
  21278477.997   -16748448.74049 -13031478.43149  21278477.6664   21278481.9944
  22189263.254     5236582.00349   4075960.53449  22189262.6834   22189268.2824
  20327525.453    -8528428.47549  -6631331.99149  20327525.3774   20327529.4654
  19957429.016    -8855643.55049  -6883194.98249  19957429.4894   19957432.9524
 97  3 17 23 12 59.9970000  0  6  2 24  5  7  9  4
  23584993.132     5840433.83649   4547162.94149  23584991.7704   23585000.5404
  20198624.016   -17942128.75049 -13954699.45549  20198623.8244   20198629.6574
  21258882.334   -16851424.81749 -13111719.50649  21258881.6724   21258886.2184
  22197546.166     5280109.20349   4109877.82549  22197544.9294   22197550.8364
  20325100.670    -8541171.49549  -6641261.63049  20325101.2854   20325104.9424
  19955146.605    -8867638.38649  -6892541.58749  19955147.0494   19955150.2144
 97  3 17 23 13 29.9970000  0  6  2 24  5  7  9  4
  23595902.388     5897764.22149   4591835.91549  23595901.6374   23595909.5844
  20182115.794   -18028879.98649 -14022297.79149  20182115.6924   20182121.1584
  21239326.553   -16954190.45649 -13191796.58749  21239326.2104   21239330.5244
  22205846.839     5323730.05849   4143868.09549  22205845.8834   22205851.4374
  20322793.122    -8553298.86149  -6650711.53549  20322793.1834   20322797.6514
  19952983.528    -8879005.36249  -6901398.95849  19952983.3874   19952987.0634
 97  3 17 23 13 59.9970000  0  6  2 24  5  7  9  4
  23606862.343     5955357.80349   4636713.95649  23606862.9794   23606870.0894
  20165706.788   -18115109.59449 -14089489.67249  20165706.5824   20165711.4864
  21219804.662   -17056778.52349 -13271735.30749  21219803.8754   21219808.3384
  22214161.064     5367422.23949   4177913.92149  22214160.6274   22214165.3824
  20320597.096    -8564838.61149  -6659703.54849  20320596.6344   20320601.3554
  19950938.049    -8889753.70549  -6909774.29049  19950937.8134   19950942.4464
 97  3 17 23 14 29.9970000  0  6  2 24  5  7  9  4
  23617872.118     6013210.95649   4681794.26349  23617872.7674   23617879.5104
  20149395.690   -18200824.71849 -14156280.64249  20149395.2944   20149400.2434
  21200313.819   -17159203.34849 -13351546.82349  21200313.5884   21200317.8324
  22222489.311     5411185.93149   4212015.47049  22222489.7604   22222493.5234
  20318510.481    -8575803.64449  -6668247.73749  20318510.5284   20318514.7034
  19949008.613    -8899892.59949  -6917674.73049  19949008.7994   19949013.3254
 97  3 17 23 14 59.9970000  0  6  2 24  5  7  9  4
  23628926.279     6071300.12749   4727058.50349  23628924.9164   23628933.3554
  20133180.052   -18286038.64649 -14222681.07149  20133179.6704   20133184.7254
  21180850.179   -17261485.55449 -13431247.19149  21180849.4134   21180853.6034
  22230825.517     5454991.85849   4246149.94049  22230825.1004   22230830.3414
  20316529.661    -8586213.25149  -6676359.12649  20316529.6494   20316533.7474
  19947194.353    -8909426.60349  -6925103.81549  19947195.0244   19947198.3054
 97  3 17 23 15 29.9970000  0  6  2 24  5  7  9  4
  23640011.747     6129556.73549   4772453.20949  23640008.4834   23640017.2674
  20117049.650   -18370804.56849 -14288732.40749  20117049.1274   20117054.7524
  21161402.483   -17363683.65349 -13510882.03749  21161401.8464   21161406.1834
  22239157.569     5498778.05149   4280269.02549  22239155.9134   22239161.6874
  20314643.903    -8596123.43849  -6684081.36749  20314643.8954   20314647.9784
  19945484.315    -8918413.74049  -6932106.76249  19945484.6784   19945488.1164
 97  3 17 23 15 59.9970000  0  6  2 24  5  7  9  4
  23651129.364     6187983.56949   4817980.57149  23651126.9164   23651136.4094
  20101010.788   -18455088.62149 -14354408.25849  20101010.2904   20101015.5064
  21141977.583   -17465762.05449 -13590423.61049  21141976.6744   21141981.0354
  22247487.785     5542554.86449   4314380.81249  22247486.9354   22247491.6824
  20312855.317    -8605522.32949  -6691405.18749  20312854.9734   20312859.3734
  19943879.934    -8926844.48249  -6938676.16149  19943879.7094   19943883.9054
 97  3 17 23 16 29.9970000  0  5 24  5  7  9  4
  20085063.914   -18538889.20149 -14419707.38149  20085063.5804   20085068.3794
  21122577.714   -17567708.08749 -13669862.03549  21122576.5354   21122581.4984
  22255816.879     5586324.28349   4348486.82949  22255816.4294   22255821.4194
  20311167.009    -8614393.53449  -6698317.81649  20311166.3324   20311171.4444
  19942381.291    -8934719.58249  -6944812.59749  19942381.5274   19942384.9754
 97  3 17 23 16 59.9970000  0  5 24  5  7  9  4
  20069209.780   -18622203.41649 -14484627.51949  20069209.7154   20069214.6784
  21103206.626   -17669502.95049 -13749182.66149  21103206.0744   21103210.7624
  22264148.479     5630107.03449   4382603.24049  22264147.5414   22264154.0794
  20309584.311    -8622710.19849  -6704798.33949  20309584.4774   20309589.2034
  19940990.449    -8942029.10649  -6950508.32549  19940990.6694   19940994.6874
 97  3 17 23 17 29.9970000  0  5 24  5  7  9  4
  20053450.519   -18705019.07149 -14549159.16749  20053450.8554   20053455.6054
  21083871.720   -17771108.47549 -13828355.73849  21083871.1104   21083876.1594
  22272488.878     5673936.80649   4416756.29549  22272488.4874   22272494.3344
  20308113.914    -8630438.07249  -6710820.07449  20308114.0254   20308118.4864
  19939708.611    -8948765.29449  -6955757.30149  19939708.4574   19939712.0654
 97  3 17 23 17 59.9970000  0  5 24  5  7  9  4
  20037787.894   -18787327.43149 -14613295.51749  20037787.8084   20037792.6934
  21064577.794   -17872498.63649 -13907361.01649  21064577.0674   21064582.5144
  22280843.642     5717840.05449   4450966.59749  22280842.8634   22280848.4554
  20306757.407    -8637566.65649  -6716374.82749  20306757.1354   20306761.1804
  19938541.236    -8954899.26249  -6960537.00649  19938541.3354   19938544.8234
 97  3 17 23 18 29.9970000  0  5 24  5  7  9  4
  20022221.139   -18869131.21249 -14677038.69849  20022220.9054   20022226.0124
  21045325.094   -17973672.03649 -13986197.40549  21045325.1754   21045329.3774
  22289216.655     5761839.63949   4485251.95949  22289216.7564   22289221.5554
  20305520.304    -8644067.07649  -6721440.10449  20305519.8914   20305524.2924
  19937493.342    -8960405.88249  -6964827.87749  19937493.5604   19937497.1054
 97  3 17 23 18 59.9970000  0  5 24  5  7  9  4
  20006744.493   -18950461.28049 -14740412.75249  20006744.1794   20006749.4984
  21026104.201   -18074678.90149 -14064904.03949  21026103.8914   21026108.7744
  22297597.965     5805883.87949   4519572.12349  22297597.0054   22297602.6044
  20304393.259    -8649989.45849  -6726054.95049  20304392.9714   20304397.5794
  19936556.255    -8965330.57149  -6968665.28849  19936556.5594   19936560.2354
 97  3 17 23 19 29.9970000  0  5 24  5  7  9  4
  19991366.917   -19031270.89449 -14803381.25549  19991366.5054   19991371.8704
  21006917.344   -18175506.87649 -14143471.25849  21006916.3944   21006921.5924
  22305990.301     5849986.27149   4553937.59549  22305989.3654   22305993.6514
  20303374.201    -8655344.97949  -6730228.10249  20303374.4564   20303378.7474
  19935733.354    -8969655.09649  -6972035.03749  19935732.9694   19935737.4914
 97  3 17 23 19 59.9970000  0  5 24  5  7  9  4
  19976094.488   -19111527.66649 -14865918.97749  19976093.8484   19976099.7104
  20987766.431   -18276144.69149 -14221890.28949  20987765.5624   20987770.5184
  22314399.375     5894176.41049   4588371.45149  22314398.6034   22314403.4054
  20302467.774    -8660109.05449  -6733940.37749  20302467.7044   20302472.1074
  19935032.046    -8973339.80649  -6974906.23949  19935031.9354   19935036.2824
 97  3 17 23 20 29.9970000  0  5 24  5  7  9  4
  19960929.906   -19191217.74249 -14928015.11549  19960929.6264   19960935.1244
  20968653.044   -18376586.13549 -14300156.31349  20968653.0444   20968657.6384
  22322825.859     5938457.61249   4622876.27549  22322825.6194   22322830.8624
  20301675.754    -8664271.20649  -6737183.61649  20301675.8024   20301680.4214
  19934450.272    -8976396.91249  -6977288.39549  19934450.6074   19934454.1684
 97  3 17 23 20 59.9970000  0  5 24  5  7  9  4
  19945875.696   -19270327.75549 -14989659.24949  19945875.4584   19945880.7334
  20949582.008   -18476805.64149 -14378249.39049  20949581.6864   20949585.7524
  22331271.058     5982836.75749   4657457.41049  22331270.8334   22331276.0284
  20300993.422    -8667857.30349  -6739977.98649  20300993.2654   20300997.0184
  19933985.887    -8978838.03349  -6979190.55149  19933986.1094   19933989.8104
 97  3 17 23 21 29.9970000  0  5 24  5  7  9  4
  19930920.445   -19348918.62849 -15050898.86249  19930920.5514   19930925.3744
  20930544.685   -18576848.14249 -14456204.57049  20930544.0564   20930548.7334
  22339725.725     6027266.23649   4692077.77249  22339724.7404   22339731.2084
  20300412.840    -8670908.60749  -6742355.63949  20300412.7474   20300416.6044
  19933630.293    -8980706.64949  -6980646.61549  19933630.2254   19933633.8384
 97  3 17 23 21 59.9970000  0  5 24  5  7  9  4
  19916054.057   -19427042.20749 -15111774.35049  19916054.0834   19916059.0784
  20911534.822   -18676745.12449 -14534046.34649  20911534.0664   20911538.6684
  22348179.051     6071689.91049   4726693.62649  22348177.5094   22348183.1734
  20299930.369    -8673444.19049  -6744331.43149  20299930.1414   20299934.5264
  19933374.629    -8982049.61749  -6981693.07149  19933374.5624   19933378.6354
 97  3 17 23 22 29.9970000  0  5 24  5  7  9  4
  19901289.422   -19504631.19849 -15172233.27349  19901289.1544   19901294.6084
  20892564.882   -18776432.55649 -14611724.83849  20892564.4894   20892568.8814
  22356638.893     6116147.43049   4761335.83249  22356638.4314   22356644.7374
  20299555.771    -8675412.52849  -6745865.19849  20299555.4904   20299559.7774
  19933226.981    -8982825.86149  -6982297.93149  19933227.1244   19933231.2954
 97  3 17 23 22 59.9970000  0  6 30 24  5  7  9  4
  23307988.223                                    23307971.067    23307953.2534
  19886625.154   -19581692.53849 -15232281.04649  19886624.5064   19886629.8654
  20873631.354   -18875929.26749 -14689254.70349  20873631.3364   20873635.4174
  22365101.318     6160616.48549   4795987.02449  22365101.3334   22365106.8894
  20299287.601    -8676821.97249  -6746963.47449  20299287.7464   20299291.4204
  19933188.228    -8983029.71749  -6982456.77449  19933188.4514   19933192.6804
 97  3 17 23 23 29.9970000  0  6 30 24  5  7  9  4
  23284273.014                                    23284253.886    23284289.5124
  19872055.579   -19658255.42849 -15291940.42249  19872055.3124   19872060.2894
  20854723.980   -18975288.62249 -14766677.54349  20854723.6954   20854728.0694
  22373559.565     6205064.31449   4830621.67149  22373559.1674   22373564.4294
  20299124.022    -8677681.93049  -6747633.57849  20299123.7594   20299127.9434
  19933253.470    -8982686.67449  -6982189.46149  19933253.8064   19933257.6734
 97  3 17 23 23 59.9970000  0  6 30 24  5  7  9  4
  23260559.729                                    23260541.053    23260567.6424
  19857592.717   -19734258.42649 -15351163.50849  19857592.6954   19857597.3684
  20835853.374   -19074454.71649 -14843949.77949  20835852.2104   20835857.2334
  22382026.943     6249560.95949   4865294.36649  22382026.4164   22382032.6314
  20299073.979    -8677944.63749  -6747838.28949  20299074.0534   20299077.9884
  19933431.296    -8981752.17049  -6981461.26949  19933431.5234   19933435.1074
 97  3 17 23 24 29.9970000  0  6 30 24  5  7  9  4
                   -899681.672
  19843240.475   -19809680.08449 -15409933.60249  19843240.0414   19843244.8044
  20817024.483   -19173401.10049 -14921050.83049  20817023.5054   20817028.0864
  22390512.721     6294153.78149   4900042.00249  22390511.9814   22390516.7514
  20299141.644    -8677589.49249  -6747561.56349  20299141.4474   20299145.3594
  19933727.662    -8980194.81449  -6980247.73449  19933727.7174   19933730.9744
 97  3 17 23 24 59.9970000  0  6 30 24  5  7  9  4
  23213169.158    23213173.245                                    23213175.0914
  19828993.331   -19884548.65649 -15468272.71649  19828992.6444   19828997.9274
  20798235.741   -19272135.92349 -14997987.02649  20798234.9124   20798239.4044
  22399017.626     6338848.34349   4934868.91049  22399017.2434   22399022.1484
  20299322.515    -8676639.08249  -6746820.99349  20299322.1024   20299326.4424
  19934138.485    -8978035.64949  -6978565.25649  19934138.2234   19934141.8534
 97  3 17 23 25 29.9970000  0  6 30 24  5  7  9  4
  23189488.303    23189492.398                                    23189495.3984
  19814849.543   -19958873.82649 -15526188.41349  19814849.3654   19814854.6944
  20779489.119   -19370650.37849 -15074751.50749  20779488.5894   20779493.1224
  22407541.179     6383641.24749   4969772.48549  22407540.1334   22407546.2394
  20299613.886    -8675107.75449  -6745627.75749  20299613.5604   20299618.3504
  19934658.068    -8975305.12449  -6976437.56049  19934658.1234   19934662.0644
 97  3 17 23 25 59.9970000  0  6 30 24  5  7  9  4
  23165815.303     -290201.74659                  23165813.621    23165822.1014
  19800809.022   -20032656.94849 -15583681.73949  19800808.7654   19800814.1424
  20760787.641   -19468927.27349 -15151330.87449  20760786.8764   20760791.3864
  22416080.559     6428516.19049   5004739.96749  22416081.3404   22416086.4064
  20300011.061    -8673020.61849  -6744001.42549  20300010.8154   20300015.5824
  19935285.492    -8972008.39849  -6973868.67949  19935285.7994   19935289.7024
 97  3 17 23 26 29.9960000  0  6 30 24  5  7  9  4
  23142151.167     -896972.89259   -387100.36549  23142150.8824   23142158.0794
  19786872.532   -20105893.84549 -15640749.41949  19786872.6734   19786877.5144
  20742132.917   -19566957.82549 -15227718.27449  20742132.4114   20742136.9794
  22424631.442     6473449.22349   5039752.69249  22424630.5514   22424637.0924
  20300512.696    -8670384.37049  -6741947.20849  20300512.2184   20300516.6834
  19936020.906    -8968144.33249  -6970857.70449  19936021.2804   19936024.7864
 97  3 17 23 26 59.9960000  0  6 30 24  5  7  9  4
  23118492.961    -1021296.57749   -483975.87249  23118493.7204   23118500.7724
  19773036.494   -20178603.13549 -15697405.98849  19773036.6224   19773041.7434
  20723519.385   -19664772.69049 -15303937.61149  20723518.5674   20723522.8914
  22433186.665     6518406.59449   5074784.40249  22433186.3284   22433191.5914
  20301113.887    -8667224.46649  -6739484.95749  20301113.3924   20301118.1224
  19936858.447    -8963743.62949  -6967428.57349  19936858.3304   19936861.9034
 97  3 17 23 27 29.9960000  0  6 30 24  5  7  9  4
  23094842.709    -1145580.99549   -580820.77549  23094842.1934   23094850.0344
  19759306.379   -20250756.08249 -15753629.03749  19759306.3074   19759310.9654
  20704949.208   -19762359.09649 -15379978.93749  20704948.6724   20704952.9354
  22441745.508     6563383.97049   5109831.71149  22441743.9644   22441749.8984
  20301818.467    -8663522.02049  -6736599.94649  20301818.4744   20301822.6664
  19937802.930    -8958779.65049  -6963560.52949  19937802.5574   19937806.7274
 97  3 17 23 27 59.9960000  0  6 30 24  5  7  9  4
  23071202.427    -1269811.11449   -677623.34649  23071202.5994   23071209.3754
  19745685.159   -20322336.00149 -15809405.57549  19745684.8774   19745689.3074
  20686423.037   -19859714.36749 -15455840.15249  20686422.1584   20686426.8254
  22450312.123     6608402.19549   5144910.82549  22450310.4434   22450316.9524
  20302629.621    -8659259.56949  -6733278.56249  20302628.9324   20302633.7924
  19938859.453    -8953226.92249  -6959233.71549  19938859.2354   19938863.0944
 97  3 17 23 28 29.9960000  0  6 30 24  5  7  9  4
  23047569.025    -1394005.81549   -774398.34649  23047569.8994   23047576.1304
  19732169.836   -20393359.51449 -15864748.54749  19732169.3034   19732173.7394
  20667936.693   -19956859.80249 -15531537.85549  20667935.9064   20667940.8244
  22458884.876     6653453.92049   5180016.05449  22458885.1074   22458888.8574
  20303548.007    -8654432.62549  -6729517.30849  20303547.7964   20303552.4574
  19940024.770    -8947102.40949  -6954461.36149  19940024.4684   19940028.2384
 97  3 17 23 28 59.9960000  0  6 30 24  5  7  9  4
  23023942.579    -1518164.11249   -871145.00049  23023942.8664   23023948.6314
  19718760.635   -20463825.16649 -15919656.82149  19718760.3664   19718765.1934
  20649490.393   -20053795.75349 -15607072.33049  20649490.0364   20649494.4174
  22467468.041                     5215160.84049  22467469.065    22467471.9994
  20304576.272    -8649029.64549  -6725307.21049  20304576.5644   20304580.8594
  19941299.319    -8940404.33649  -6949242.07549  19941299.4264   19941303.1544
 97  3 17 23 29 29.9960000  0  6 30 24  5  7  9  4
  23000320.054    -1642302.02349   -967875.74549  23000321.0194   23000326.5184
  19705456.514   -20533738.75249 -15974134.91649  19705456.3864   19705460.9834
  20631082.802   -20150529.04249 -15682448.87449  20631082.2994   20631086.5314
  22476060.169     6743705.57549   5250341.94549  22476060.0074   22476064.4154
  20305712.721    -8643058.03949  -6720654.01649  20305712.5384   20305716.5284
  19942683.433    -8933130.77349  -6943574.35149  19942683.8674   19942687.3534
 97  3 17 23 29 59.9960000  0  6 30 24  5  7  9  4
  22976701.664    -1766417.04449  -1064588.68849  22976701.7204   22976707.5724
  19692254.353   -20603116.19849 -16028195.23249  19692254.3964   19692258.8964
  20612712.301   -20247067.01449 -15757673.23449  20612711.9764   20612715.9364
  22484658.147     6788888.09849   5285549.10349  22484655.2974   22484662.5354
  20306954.856    -8636530.93249  -6715567.97449  20306954.9384   20306959.1684
  19944172.309    -8925306.75449  -6937477.69249  19944172.5774   19944175.9274
 97  3 17 23 30 29.9960000  0  6 30 24  5  7  9  4
  22953097.168    -1890460.11349  -1161245.55349  22953097.1714   22953104.0904
  19679160.014   -20671927.70649 -16081814.55749  19679159.9414   19679164.4784
  20594388.402   -20343359.60049 -15832706.39949  20594387.8524   20594391.7974
  22493269.005     6834142.28549   5320812.08649  22493268.6944   22493273.7054
  20308310.158    -8629409.35449  -6710018.71149  20308309.8204   20308314.3494
  19945773.423    -8916893.33049  -6930921.76449  19945773.6784   19945777.4324
 97  3 17 23 30 59.9960000  0  6 30 24  5  7  9  4
  22929510.248    -2014410.13349  -1257829.90749  22929509.8314   22929517.1284
  19666176.564   -20740156.06949 -16134979.48449  19666175.7504   19666180.6754
  20576113.678   -20439393.22549 -15907537.77149  20576112.5944   20576116.7614
  22501896.826     6879480.26449   5356140.37749  22501896.4214   22501902.8554
  20309777.085    -8621699.97149  -6704011.40149  20309776.5244   20309781.3894
  19947489.151    -8907877.27449  -6923896.25749  19947489.6004   19947493.6204
 97  3 17 23 31 29.9960000  0  6 30 24  5  7  9  4
  22905942.217    -2138259.40849  -1354335.77149  22905941.4674   22905948.2874
  19653304.050   -20807800.26649 -16187689.23249  19653303.9514   19653309.1934
  20557890.694   -20535155.06049 -15982157.36749  20557890.1294   20557894.7794
  22510539.855     6924898.16249   5391530.87749  22510540.8474   22510540.4604
  20311352.492    -8613421.15849  -6697560.38649  20311352.8334   20311356.9234
  19949317.933    -8898266.89549  -6916407.65049  19949317.7654   19949322.0164
 97  3 17 23 31 59.9960000  0  6 30 24  5  7  9  4
  22882391.780    -2262017.96849  -1450770.96049  22882392.3494   22882398.7754
  19640541.738   -20874867.16549 -16239949.12449  19640541.7864   19640546.7454
  20539719.976   -20630643.03849 -16056563.56849  20539719.2584   20539723.6624
  22519198.605     6970402.09549   5426988.45549  22519192.4674   22519200.1264
  20313034.632    -8604582.02349  -6690672.75949  20313034.5794   20313038.8054
  19951258.174    -8888070.33749  -6908462.27249  19951258.1114   19951262.2574
 97  3 17 23 32 29.9960000  0  6 30 24  5  7  9  4
  22858851.839    -2385720.67849  -1547162.62849  22858851.3864   22858858.5284
  19627884.828   -20941380.10649 -16291777.36249  19627884.7284   19627889.3374
  20521597.596   -20725876.74749 -16130771.62249  20521596.9844   20521601.4504
  22527869.682     7015971.61149   5462497.20549  22527868.1914   22527875.2864
  20314816.798    -8595216.83449  -6683375.22449  20314816.4254   20314820.9014
  19953307.578    -8877300.48449  -6900070.16249  19953307.5534   19953311.4644
 97  3 17 23 32 59.9960000  0  6 30 24  5  7  9  4
  22835323.081    -2509364.73249  -1643508.57349  22835322.2654   22835328.9924
  19615337.583   -21007316.48449 -16343156.32649  19615337.2154   19615342.0754
  20503526.344   -20820841.65449 -16204770.22149  20503525.8844   20503529.9094
  22536554.426     7061608.20149   5498058.14349  22536551.8604   22536558.2444
  20316698.768    -8585326.50749  -6675668.48449  20316698.3124   20316703.4344
  19955465.183    -8865962.01349  -6891234.98449  19955465.8184   19955469.3694
 97  3 17 23 33 29.9960000  0  6 30 24  5  7  9  4
  22811805.819    -2632949.21349  -1739808.11349  22811805.0464   22811810.4144
  19602900.885   -21072671.20449 -16394082.06249  19602900.4144   19602905.6334
  20485508.237   -20915527.29349 -16278551.20849  20485506.9794   20485511.8074
  22545253.204     7107320.51849   5533678.11649  22545247.7004   22545261.9584
  20318685.718    -8574884.56549  -6667531.91249  20318685.7874   20318691.0264
  19957731.676    -8854052.18949  -6881954.59049  19957732.0704   19957735.8604
 97  3 17 23 33 59.9960000  0  6 30 24  5  7  9  4
  22788299.230    -2756475.66849  -1836062.43449  22788300.4184   22788302.8464
  19590577.293   -21137431.73649 -16444544.78749  19590577.0564   19590581.8794
  20467542.526   -21009936.98149 -16352117.17049  20467541.9464   20467546.6224
  22553965.048     7153106.45149   5569355.49049  22553963.4764   22553968.3174
  20320782.334    -8563867.53649  -6658947.23749  20320782.7154   20320787.0834
  19960110.086    -8841554.02449  -6872215.75449  19960110.3234   19960114.1924
 97  3 17 23 34 29.9960000  0  6 30 24  5  7  9  4
  22764804.786    -2879940.15249  -1932268.39749  22764804.5444   22764809.7414
  19578364.349   -21201611.11549 -16494554.66449  19578364.2904   19578368.7314
  20449625.871   -21104089.33449 -16425482.61149  20449624.9694   20449630.1704
  22562687.274     7198940.22849   5605070.08249  22562689.5054   22562694.6144
  20322986.031    -8552287.33949  -6649923.72149  20322985.4104   20322990.3334
  19962595.864    -8828491.23049  -6862036.94449  19962596.1124   19962599.8084
 97  3 17 23 34 59.9960000  0  6 30 24  5  7  9  4
  22741321.329    -3003347.36249  -2028429.71949  22741323.0904   22741326.4274
  19566259.877   -21265220.84549 -16544120.65549  19566259.8104   19566264.2204
  20431753.841   -21198007.33049 -16498665.43349  20431753.4714   20431758.0844
  22571418.604     7244819.08149   5640819.80449  22571421.5904   22571421.3894
  20325295.470    -8540150.21249  -6640466.21949  20325295.5214   20325299.6624
  19965182.745    -8814897.44849  -6851444.38049  19965182.5424   19965186.5764
 97  3 17 23 35 29.9960000  0  6 30 24  5  7  9  4
  22717840.719    -3126741.24149  -2124580.69749  22717841.4564   22717844.5184
  19554253.701   -21328313.79949 -16593283.96749  19554253.3024   19554258.5514
  20413914.236   -21291755.40549 -16571715.85249  20413913.9614   20413918.4344
  22580151.218     7290708.15649   5676577.49149  22580147.7994   22580158.5184
  20327704.704    -8527490.71749  -6630601.69849  20327705.4024   20327708.8964
  19967863.828    -8800807.55949  -6840465.24049  19967863.6764   19967867.8274
 97  3 17 23 35 59.9960000  0  6 30 24  5  7  9  4
  22694367.314    -3250093.83149  -2220699.53049  22694368.2164   22694370.7684
  19542350.303   -21390866.38949 -16642026.22049  19542349.4734   19542354.9384
  20396112.943   -21385302.36349 -16644609.55249  20396112.1954   20396117.0004
  22588889.909     7336633.68449   5712363.61649  22588889.5674   22588897.8874
  20330214.142    -8514304.63849  -6620326.84849  20330213.9164   20330218.2494
  19970643.596    -8786199.18549  -6829082.09249  19970643.9514   19970647.8674
 97  3 17 23 36 29.9960000  0  6 30 24  5  7  9  4
  22670907.927    -3373372.48349  -2316760.73949  22670906.8784   22670910.0504
  19530551.729   -21452867.41349 -16690338.68949  19530551.4114   19530556.5784
  20378354.699   -21478622.29349 -16717326.33749  20378354.0194   20378359.2034
  22597640.760     7382618.98349   5748196.28649  22597634.9334   22597646.8064
  20332826.291    -8500577.27949  -6609630.21049  20332825.8884   20332830.7024
  19973523.429    -8771065.86849  -6817289.88749  19973523.5774   19973527.8964
 97  3 17 23 36 59.9960000  0  6 30 24  5  7  9  4
  22647464.010    -3496570.55549  -2412759.17149  22647464.7564   22647468.2234
  19518860.855   -21514303.00249 -16738210.55649  19518860.6444   19518865.6444
  20360643.750   -21571693.54849 -16789849.36449  20360643.2404   20360647.4204
  22606404.948     7428674.74049   5784083.82149  22606408.1194   22606407.6084
  20335546.236    -8486284.05749  -6598492.64849  20335545.7554   20335550.4884
  19976506.920    -8755387.45549  -6805072.94449  19976507.2324   19976511.3404
 97  3 17 23 37 29.9960000  0  6 30 24  5  7  9  4
  22624030.669    -3619711.95949  -2508713.43649  22624030.8494   22624035.4984
  19507271.384   -21575206.47049 -16785667.77749  19507271.2674   19507276.2654
  20342978.032   -21664527.45349 -16862187.44249  20342977.4604   20342981.7504
  22615173.581     7474752.03349   5819988.14749  22615173.5414   22615177.4534
  20338366.148    -8471464.62549  -6586945.05449  20338366.0224   20338370.4714
  19979590.059    -8739185.59049  -6792448.11249  19979590.4774   19979594.1274
 97  3 17 23 37 59.9960000  0  6 30 24  5  7  9  4
  22600611.017    -3742782.49949  -2604612.50749  22600611.8124   22600615.7644
  19495784.488   -21635570.68949 -16832704.81049  19495784.3894   19495789.5044
  20325363.356   -21757093.08749 -16934316.46849  20325362.7344   20325367.3644
  22623942.560     7520833.81549   5855896.00949  22623940.8824   22623946.0554
  20341282.973    -8456136.56349  -6575001.12249  20341282.9134   20341287.2664
  19982771.186    -8722468.88449  -6779422.10049  19982771.0954   19982775.2124
 97  3 17 23 38 29.9960000  0  6 30 24  5  7  9  4
  22577211.134    -3865749.36449  -2700430.78949  22577210.4624   22577213.3324
  19484405.233   -21695369.11749 -16879300.96849  19484405.2274   19484410.3334
  20307802.703   -21849374.61649 -17006224.11749  20307802.0314   20307807.1054
  22632715.354     7566936.91649   5891820.50349  22632712.2094   22632718.8514
  20344302.491    -8440268.95749  -6562636.77049  20344301.9434   20344306.5804
  19986054.048    -8705216.99949  -6765979.07749  19986054.3324   19986058.3644
 97  3 17 23 38 59.9960000  0  6 30 24  5  7  9  4
  22553831.281    -3988610.98849  -2796167.07049  22553831.5974   22553835.2744
  19473137.955   -21754578.67449 -16925438.26449  19473137.7674   19473142.7964
  20290299.945   -21941351.60749 -17077894.47349  20290299.6684   20290304.3084
  22641497.674     7613090.58849   5927784.36649  22641497.9574   22641498.9834
  20347423.198    -8423869.23849  -6549857.78149  20347422.9324   20347427.8324
  19989442.140    -8687412.49449  -6752105.43149  19989442.5274   19989446.2284
 97  3 17 23 39 29.9960000  0  6 30 24  5  7  9  4
  22530468.276    -4111383.17149  -2891833.63249  22530467.1224   22530471.3564
  19461980.495   -21813211.55849 -16971126.19849  19461980.1814   19461985.1934
  20272853.304   -22033035.35349 -17149336.34449  20272852.7964   20272857.6234
  22650288.167     7659286.31449   5963781.02649  22650285.5344   22650299.9114
  20350635.985    -8406986.01049  -6536702.01949  20350635.7184   20350641.0524
  19992931.753    -8669074.90449  -6737816.39749  19992931.8414   19992935.4204
 97  3 17 23 39 59.9960000  0  6 30 24  5  7  9  4
  22507117.325    -4234093.47849  -2987451.95049  22507117.7574   22507120.6854
  19450931.779   -21871273.10949 -17016368.92949  19450932.1404   19450936.4074
  20255458.941   -22124443.07449 -17220563.10949  20255458.4484   20255462.6664
  22659088.006     7705531.60749   5999816.34949  22659079.4664   22659096.1764
  20353941.934    -8389612.94849  -6523164.57149  20353941.6794   20353947.0284
  19996522.090    -8650207.34349  -6723114.38849  19996521.7964   19996525.1314
 97  3 17 23 40 29.9960000  0  6 30 24  5  7  9  4
  22483776.327    -4356749.70749  -3083028.15749  22483775.5564   22483779.2664
  19439994.040   -21928752.18549 -17061157.78849  19439993.7924   19439998.7334
  20238115.859   -22215581.68749 -17291580.18549  20238115.3044   20238119.5304
  22667902.700     7751850.46249                  22667904.7564   22667913.8874
  20357345.817    -8371725.78149  -6509226.53149  20357345.7634   20357350.2074
  20000215.215    -8630799.10649  -6707991.07949  20000215.3294   20000218.8744
 97  3 17 23 40 59.9960000  0  6 30 24  5  7  9  4
  22460443.634    -4479361.67659  -3178569.90649  22460443.7284   22460446.4374
  19429165.827   -21985654.29149 -17105497.06749  19429165.2594   19429170.2774
  20220824.473   -22306448.40449 -17362385.39549  20220823.9654   20220828.4344
  22676731.754     7798245.77649   6072061.16259  22676730.7064   22676736.5954
  20360847.144    -8353325.90249  -6494888.97349  20360846.7094   20360852.1744
  20004010.576    -8610854.32549  -6692449.68349  20004010.6724   20004014.3764
 97  3 17 23 41 29.9960000  0  6 30 24  5  7  9  4
  22437119.094    -4601933.62449  -3274080.45049  22437119.9954   22437123.0994
  19418444.558   -22041994.15749 -17149398.23149  19418443.8114   19418448.5944
  20203581.166   -22397062.30349 -17432993.60749  20203580.5924   20203585.1094
  22685567.949     7844679.65148   6108243.38649  22685568.2884   22685572.9454
  20364449.570    -8334394.75649  -6480137.44749  20364449.8254   20364454.3064
  20007905.264    -8590388.37649  -6676502.17849  20007905.2454   20007909.1124
 97  3 17 23 41 59.9960000  0  6 30 24  5  7  9  4
  22413806.741    -4724441.52149  -3369541.07849  22413806.7544   22413810.9674
  19407834.306   -22097750.40749 -17192844.63049  19407834.2764   19407838.8294
  20186387.444   -22487415.70349 -17503398.83249  20186386.3264   20186391.5004
  22694413.592     7891160.44248                  22694413.0354   22694422.5884
  20368161.221    -8314890.75749  -6464939.54049  20368161.7654   20368165.7724
  20011899.906    -8569396.04949  -6660144.51349  20011899.9804   20011903.8744
 97  3 17 23 42 29.9960000  0  6 30 24  5  7  9  4
  22390511.631    -4846858.72749  -3464931.04449  22390512.2814   22390515.8284
  19397335.662   -22152921.59149 -17235835.13749  19397335.8144   19397340.3974
  20169245.403   -22577497.22349 -17573592.21249  20169244.7924   20169249.5744
  22703267.009     7937682.35348                  22703263.8084   22703272.9284
  20371979.771    -8294824.37249  -6449303.41049  20371979.1424   20371984.3414
  20015994.119    -8547881.13549  -6643379.63749  20015994.3054   20015998.2934
 97  3 17 23 42 59.9960000  0  6 30 24  5  7  9  4
  22367230.129    -4969203.64649  -3560264.68149  22367231.0884   22367235.1414
  19386937.989   -22207562.04949 -17278412.08749  19386937.9624   19386942.7074
  20152148.393   -22667342.41149 -17643601.41949  20152147.4194   20152152.4884
  22712115.225                                    22712107.355    22712116.0424
  20375895.565    -8274246.66149  -6433268.83949  20375895.3314   20375899.9914
  20020180.059    -8525884.27749  -6626239.21449  20020180.5774   20020183.9324
 97  3 17 23 43 29.9960000  0  6 30 24  5  7  9  4
  22343960.173    -5091488.13049  -3655551.22149  22343958.8894   22343965.6584
  19376636.639   -22261696.22049 -17320594.53649  19376636.1944   19376641.1574
  20135093.223   -22756967.01449 -17713438.72949  20135092.6754   20135097.3974
  22720956.339                                    22720953.032    22720967.3904
  20379903.278    -8253186.34149  -6416858.21849  20379903.3174   20379907.2834
  20024453.991    -8503425.31949  -6608738.71849  20024454.4794   20024457.6144
 97  3 17 23 43 59.9960000  0  6 30 24  5  7  9  4
  22320693.249    -5213756.38249  -3750825.08349  22320693.4654   22320699.4294
  19366419.548   -22315387.01949 -17362431.50149  19366419.8374   19366423.9964
  20118070.976   -22846419.56049 -17783141.96849  20118070.6104   20118075.2064
  22729786.055                                    22729780.840    22729784.0854
  20383988.713    -8231717.40149  -6400129.18649  20383988.4084   20383993.5754
  20028805.105    -8480560.64249  -6590922.07749  20028805.3974   20028808.6634
 97  3 17 23 44 29.9960000  0  6 30 24  5  7  9  4
  22297447.866    -5335912.48349  -3846011.57649  22297447.6784   22297452.3694
  19356302.352   -22368554.01949 -17403860.30549  19356302.2314   19356306.8674
  20101102.383   -22935589.95749 -17852625.36149  20101102.2664   20101106.2674
  22738619.869                                    22738614.854    22738612.8634
  20388166.629    -8209761.25549  -6383020.50749  20388166.1364   20388171.1874
  20033251.864    -8457193.01149  -6572713.51949  20033252.0084   20033255.2984
 97  3 17 23 44 59.9960000  0  6 30 24  5  7  9  4
  22274222.778    -5457962.06549  -3941115.06149  22274222.0074   22274227.3374
  19346288.155   -22421178.81049 -17444866.61449  19346287.9944   19346292.7224
  20084189.778   -23024466.96549 -17921880.14649  20084189.5654   20084193.4364
  22747462.122                                    22747457.863    22747457.5674
  20392437.324    -8187318.58449  -6365532.72449  20392437.1604   20392442.3554
  20037793.845    -8433324.56049  -6554114.72149  20037793.7744   20037797.3864
 97  3 17 23 45 29.9960000  0  6 30 24  5  7  9  4
  22251002.742    -5579983.29549  -4036196.45649  22251003.2914   22251006.3514
  19336370.469   -22473296.52749 -17485477.79749  19336370.1404   19336375.0414
  20067321.967   -23113108.22849 -17990951.23549  20067321.4724   20067325.8484
  22756305.125                                    22756300.091    22756299.4674
  20396789.281    -8164449.69049  -6347712.83149  20396789.5164   20396793.8734
  20042418.509    -8409021.34049  -6535177.14749  20042417.9534   20042422.1324
 97  3 17 23 45 59.9960000  0  6 30 24  5  7  9  4
  22227791.978    -5701955.26849  -4131239.46149  22227792.4594   22227795.5654
  19326558.869   -22524856.26649 -17525654.19849  19326558.4424   19326563.4154
  20050505.618   -23201479.05649 -18059811.59549  20050505.3344   20050509.7164
  22765153.493                                    22765148.346    22765148.7694
  20401228.219    -8141123.72849  -6329536.77849  20401228.1244   20401232.5144
  20047130.695    -8384257.93549  -6515880.98649  20047130.6904   20047133.6794
 97  3 17 23 46 29.9960000  0  7 30 10 24  5  7  9  4
  22204598.779    -5823835.48649  -4226210.97449  22204598.7464   22204603.2864
  23519081.323    -6946704.77349  -5372857.65049  23519081.5294   23519089.1294
  19316868.524   -22575778.88549 -17565334.14249  19316868.2804   19316873.3094
  20033752.263   -23289518.74249 -18128413.90849  20033751.1934   20033756.3084
  22774017.039                                    22774020.853    22774036.6894
  20405763.938    -8117287.85449  -6310963.37749  20405763.1444   20405768.1004
  20051941.271    -8358978.46249  -6496182.67349  20051940.9804   20051944.1524
 97  3 17 23 46 59.9960000  0  7 30 10 24  5  7  9  4
  22181415.121    -5945665.99849  -4321143.76249  22181414.7464   22181420.2104
  23496144.544    -7067240.43549  -5466781.41049  23496145.2474   23496151.5204
  19307293.651   -22626095.29649 -17604541.71049  19307293.1794   19307298.3834
  20017050.436   -23377287.44549 -18196805.08649  20017049.9054   20017054.0814
  22782880.295                                    22782885.776    22782909.9824
  20410389.297    -8092980.84449  -6292022.86449  20410389.5414   20410393.6974
  20056841.478    -8333227.12649  -6476116.69849  20056841.6574   20056844.5834
 97  3 17 23 47 29.9960000  0  7 30 10 24  5  7  9  4
  22158243.924    -6067430.85549  -4416025.37949  22158244.9264   22158248.6664
  23473201.212    -7187811.53449  -5560732.77249  23473201.5014   23473207.3554
  19297831.870   -22675816.50649 -17643285.49149  19297831.3994   19297836.5934
  20000399.223   -23464790.21949 -18264989.05149  20000398.9224   20000403.3084
  22791748.109                                    22791754.836    22791802.6034
  20415107.255    -8068188.71249  -6272704.33849  20415107.7354   20415111.6994
  20061833.649    -8306992.50349  -6455674.13549  20061833.5624   20061837.1694
 97  3 17 23 47 59.9960000  0  7 30 10 24  5  7  9  4
  22135087.117    -6189120.95149  -4510848.72249  22135087.9374   22135092.0764
  23450248.500    -7308430.09149  -5654721.11649  23450247.9814   23450254.0874
  19288478.372   -22724969.40749 -17681586.42949  19288477.9954   19288482.8634
  19983798.571   -23552027.53949 -18332966.16549  19983798.3344   19983802.4954
  22800618.831                                    22800617.241    22800633.0754
  20419914.459    -8042927.16049  -6253020.02749  20419914.0984   20419918.7874
  20066916.061    -8280284.33349  -6434862.57149  20066916.4534   20066919.9834
 97  3 17 23 48 29.9960000  0  7 30 10 24  5  7  9  4
  22111948.958    -6310712.97849  -4605595.66949  22111949.2964   22111954.0084
  23427286.788    -7429094.22949  -5748744.98249  23427285.9174   23427292.2974
  19279230.259   -22773568.36849 -17719455.72549  19279230.0574   19279234.6384
  19967249.261   -23638995.30749 -18400733.23249  19967248.7714   19967253.5144
  22809493.489                                    22809490.948    22809512.4734
  20424811.222    -8017193.90249  -6232968.14149  20424810.9384   20424815.4014
  20072090.435    -8253093.60049  -6413674.98549  20072090.9014   20072094.1084
 97  3 17 23 48 59.9960000  0  7 30 10 24  5  7  9  4
  22088835.695    -6432174.49249  -4700240.90149  22088835.1184   22088839.7564
  23404320.460    -7549783.25349  -5842788.24649  23404319.4174   23404326.3734
  19270087.357   -22821614.69649 -17756894.39849  19270087.3164   19270091.8264
  19950755.741   -23725669.13349 -18468271.25449  19950755.0004   19950759.6164
  22818377.528                                    22818374.548    22818402.3834
  20429803.136    -7990961.00249  -6212526.93549  20429802.7824   20429807.6344
  20077360.819    -8225398.16049  -6392094.11149  20077360.7724   20077364.5214
 97  3 17 23 49 29.9960000  0  7 30 10 24  5  7  9  4
  22065745.863    -6553512.75449  -4794790.11449  22065745.8824   22065751.1774
  23381348.273    -7670503.75049  -5936856.04949  23381346.0214   23381354.3464
  19261049.330   -22869109.90349 -17793903.62649  19261049.4434   19261053.8994
  19934320.049   -23812038.99749 -18535572.42249  19934319.5084   19934323.6474
  22827267.829                                    22827265.043    22827236.9244
  20434888.291    -7964238.26549  -6191704.04349  20434888.0114   20434892.5604
  20082724.594    -8197210.90449  -6370130.01249  20082724.0894   20082728.3404
 97  3 17 23 49 59.9960000  0  7 30 10 24  5  7  9  4
  22042673.488    -6674759.39149  -4889267.96049  22042674.0644   22042678.6454
  23358363.833    -7791286.67849  -6030972.49449  23358361.0534   23358370.3354
  19252111.714   -22916077.58749 -17830501.80049  19252111.6104   19252116.2714
  19917936.724   -23898133.70149 -18602659.19049  19917935.8504   19917940.0894
  22836157.907                                    22836155.269    22836117.8164
  20440058.179    -7937070.42849  -6170534.31849  20440058.2624   20440062.4864
  20088174.372    -8168571.38449  -6347813.50749  20088174.0764   20088178.5774
 97  3 17 23 50 29.9960000  0  6 30 10 24  5  9  4
  22019617.662    -6795918.60349  -4983677.68249  22019618.5554   22019621.2574
  23335364.903    -7912144.45649  -6125147.28949  23335362.2354   23335372.0274
  19243274.184   -22962519.22349 -17866690.06149  19243273.9694   19243278.8794
  19901603.592   -23983964.30249 -18669540.15549  19901602.5574   19901606.7534
  20445313.865    -7909451.58849  -6149013.15549  20445313.2344   20445318.0584
  20093708.640    -8139487.59849  -6325150.81649  20093708.4854   20093712.5124
 97  3 17 23 50 59.9960000  0  6 30 10 24  5  9  4
  21996580.657    -6916978.47449  -5078009.99349  21996579.5954   21996584.8884
  23312355.075    -8033060.77749  -6219367.68149  23312352.6244   23312362.7744
  19234542.402   -23008405.04949 -17902445.23649  19234542.3034   19234546.9174
  19885324.161   -24069512.78649 -18736201.29749  19885323.7374   19885327.8674
  20450659.560    -7881359.41949  -6127123.17449  20450659.4034   20450664.3634
  20099330.733    -8109943.22949  -6302129.22549  20099330.8534   20099334.4634
 97  3 17 23 51 29.9960000  0  6 30 10 24  5  9  4
  21973555.229    -7037975.35249  -5172293.20949  21973553.3464   21973560.3944
  23289330.425    -8154055.69549  -6313649.32349  23289327.4844   23289337.1404
  19225912.363   -23053756.15549 -17937783.73649  19225912.5384   19225916.4674
  19869093.320   -24154806.13349 -18802663.63549  19869092.4644   19869097.0734
  20456087.183    -7852837.37149  -6104898.22149  20456087.3254   20456091.8644
  20105035.107    -8079966.61649  -6278770.82549  20105035.4244   20105039.0574
 97  3 17 23 51 59.9960000  0  6 30 10 24  5  9  4
  21950540.683    -7158915.40149  -5266532.13449  21950540.5874   21950545.9854
  23266288.691    -8275141.55649  -6408001.82149  23266287.5644   23266296.2044
  19217378.810   -23098600.66849 -17972727.48149  19217378.7364   19217383.0474
  19852909.315   -24239853.31049 -18868934.14149  19852908.7374   19852913.3894
  20461594.152    -7823898.09549  -6082348.15849  20461593.8834   20461598.8884
  20110821.232    -8049560.86549  -6255078.02749  20110821.7484   20110825.1424
 97  3 17 23 52 29.9960000  0  6 30 10 24  5  9  4
  21927534.844    -7279812.21249  -5360737.38849  21927535.3234   21927539.4944
  23243229.366    -8396318.98949  -6502425.68549  23243227.4084   23243236.9054
  19208938.704   -23142953.39149 -18007288.02149  19208938.3194   19208943.1244
  19836773.663   -24324647.07449 -18935007.19049  19836773.0684   19836777.4334
  20467180.809    -7794540.02649  -6059471.75249  20467181.2354   20467185.8064
  20116687.476    -8018733.85749  -6231056.98149  20116687.5474   20116691.4454
 97  3 17 23 52 59.9960000  0  6 30 10 24  5  9  4
  21904538.560    -7400659.07349  -5454903.74749  21904538.9334   21904543.1294
  23220159.770    -8517552.36449  -6596893.09649  23220157.1504   23220165.4974
  19200593.323   -23186808.54649 -18041460.85449  19200593.0864   19200597.6884
  19820692.139   -24409156.34749 -19000858.55849  19820692.0804   19820695.6174
  20472846.660    -7764766.65749  -6036271.74949  20472846.8334   20472851.6014
  20122637.210    -7987467.86649  -6206693.87149  20122637.2284   20122640.9654
 97  3 17 23 53 29.9960000  0  6 30 10 24  5  9  4
  21881556.185    -7521432.50849  -5549012.88549  21881556.3344   21881560.2074
  23197080.709    -8638832.44249  -6691396.93649  23197078.0474   23197086.1114
  19192343.669   -23230160.41649 -18075241.51349  19192343.4574   19192348.1444
  19804669.920   -24493354.10449 -19066467.19049  19804669.3734   19804673.1944
  20478591.710    -7734576.42949  -6012746.90849  20478591.0364   20478596.1854
  20128670.747    -7955761.71949  -6181987.77949  20128671.0914   20128674.5434
 97  3 17 23 53 59.9960000  0  6 30 10 24  5  9  4
  21858589.106    -7642125.37949  -5643059.25049  21858588.9044   21858593.4004
  23173989.370    -8760173.88549  -6785948.58849  23173987.7924   23173994.4264
  19184187.868   -23273019.29349 -18108638.01249  19184187.7834   19184191.9474
  19788702.594   -24577262.96849 -19131850.70249  19788701.8574   19788705.7854
  20484414.901    -7703974.48649  -5988901.24249  20484414.7454   20484420.1834
  20134782.978    -7923642.25649  -6156959.61549  20134782.9904   20134786.1664
 97  3 17 23 54 29.9960000  0  6 30 10 24  5  9  4
  21835636.019    -7762744.42749  -5737048.06649  21835636.6434   21835640.0664
  23150887.359    -8881571.88949  -6880544.33849  23150885.7854   23150893.4154
  19176127.071   -23315379.02349 -18141645.57449  19176126.6644   19176131.2134
  19772789.364   -24660887.42649 -19197012.59049  19772788.7834   19772792.8204
  20490314.718    -7672971.34849  -5964742.96749  20490314.6904   20490319.6914
  20140970.741    -7891125.31149  -6131621.73149  20140970.9464   20140974.1894
 97  3 17 23 54 59.9950000  0  6 30 10 24  5  9  4
  21812703.954    -7883253.77749  -5830951.41349  21812704.0494   21812708.0974
  23127777.517    -9003013.18949  -6975173.83849  23127776.6134   23127784.0674
  19168169.018   -23357198.72549 -18174232.33949  19168169.0334   19168173.6404
  19756933.554   -24744210.39249 -19261939.54749  19756933.1504   19756936.9584
  20496293.506    -7641552.37349  -5940260.65649  20496292.6724   20496297.9074
  20147235.864    -7858201.60549  -6105966.88849  20147235.9494   20147239.2284
 97  3 17 23 55 29.9950000  0  6 30 10 24  5  9  4
  21789789.009    -8003672.80049  -5924784.37049  21789788.1244   21789792.9934
  23104653.854    -9124529.08549  -7069861.44749  23104653.8614   23104660.0474
  19160314.007   -23398478.01449 -18206397.99249  19160314.0214   19160318.3454
  19741127.153   -24827273.22749 -19326663.80449  19741126.8024   19741130.6834
  20502351.522    -7609717.31349  -5915454.14449  20502351.8374   20502356.2504
  20153573.572    -7824896.44149  -6080014.80949  20153573.6814   20153577.2224
 97  3 17 23 55 59.9950000  0  7 30 10 24  5  9  4  6
  21766888.435    -8124014.53249  -6018557.08349  21766887.2184   21766892.6984
  23081520.499    -9246098.53949  -7164590.76249  23081520.4964   23081527.6414
  19152561.344   -23439218.48649 -18238143.79549  19152560.7284   19152565.4074
  19725368.872   -24910084.08949 -19391191.73349  19725368.4524   19725371.9614
  20508492.121    -7577449.32949  -5890310.28449  20508492.0364   20508497.2204
  20159982.714    -7791216.91449  -6053771.01349  20159982.9744   20159986.2744
  23644632.025    -5150667.31049  -4002869.83149  23644631.1624   23644638.1324
 97  3 17 23 56 29.9950000  0  7 30 10 24  5  9  4  6
  21744000.718    -8244289.23449  -6112277.57649  21744000.1324   21744006.4844
  23058378.614    -9367711.33649  -7259353.88449  23058377.5374   23058384.8354
  19144911.758   -23479416.10849 -18269466.59849  19144911.2244   19144916.2284
  19709665.572   -24992605.67049 -19455494.24749  19709664.6934   19709668.6024
  20514715.829    -7544743.05349  -5864824.87849  20514715.3084   20514720.6514
  20166465.188    -7757151.21849  -6027226.30949  20166465.6864   20166468.9104
  23625133.749    -5253131.85349  -4082712.18349  23625133.4404   23625140.3444
 97  3 17 23 56 59.9950000  0  7 30 10 24  5  9  4  6
  21721133.230    -8364457.42349  -6205915.05349  21721133.3424   21721138.4114
  23035236.590    -9489322.77149  -7354115.96249  23035235.6284   23035242.8834
  19137372.750   -23519033.23849 -18300337.07449  19137372.6734   19137377.2484
  19694023.736   -25074803.64449 -19519544.58949  19694023.0224   19694027.1354
  20521031.448    -7511553.48449  -5838962.89149  20521031.8154   20521036.1954
  20173029.526    -7722655.64249  -6000346.63049  20173029.2524   20173033.5044
  23605651.905    -5355509.24749  -4162486.64749  23605651.7574   23605658.8844
 97  3 17 23 57 29.9950000  0  7 30 10 24  5  9  4  6
  21698284.322    -8484529.90249  -6299477.95449  21698285.4704   21698289.7684
  23012098.162    -9610914.03049  -7448862.33749  23012097.2574   23012105.4104
  19129940.248   -23558091.35149 -18330771.94249  19129940.2184   19129945.1004
  19678441.440   -25156688.49549 -19583350.93449  19678440.7094   19678445.1644
  20527436.555    -7477895.52649  -5812735.92849  20527436.6114   20527440.8914
  20179676.105    -7687727.52949  -5973129.91549  20179676.2814   20179680.0214
  23586184.753    -5457810.78149  -4242201.96949  23586186.0234   23586192.5954
 97  3 17 23 57 59.9950000  0  7 30 10 24  5  9  4  6
  21675453.009    -8604508.97849  -6392968.07249  21675452.1374   21675457.9154
  22988962.632    -9732492.20949  -7543598.51549  22988962.8124   22988969.6234
  19122608.765   -23596618.72349 -18360793.25949  19122608.7034   19122613.4434
  19662919.341   -25238257.64549 -19646911.29049  19662918.9844   19662922.7074
  20533924.548    -7443800.59949  -5786168.46949  20533924.3304   20533929.1224
  20186404.107    -7652371.38249  -5945579.67149  20186403.5644   20186408.0154
  23566725.955    -5560065.80349  -4321881.03749  23566723.2574   23566730.8624
 97  3 17 23 58 29.9950000  0  7 30 10 24  5  9  4  6
  21652644.497    -8724367.52449  -6486364.25249  21652644.8264   21652650.1604
  22965832.297    -9854043.97349  -7638314.09949  22965832.2054   22965839.6214
  19115380.645   -23634602.75649 -18390391.19249  19115380.5274   19115384.9684
  19647458.339   -25319506.25649 -19710221.87949  19647457.8184   19647461.6154
  20540490.789    -7409294.44949  -5759280.57549  20540490.8944   20540495.5084
  20193216.315    -7616572.13749  -5917684.16149  20193216.4674   20193220.5824
  23547275.526    -5662277.59949  -4401526.48649  23547275.9004   23547282.5294
